Time,TemperatureF,DewpointF,PressureIn,WindDirection,WindDirectionDegrees,WindSpeedMPH,WindSpeedGustMPH,Humidity,HourlyPrecipIn,Conditions,Clouds,dailyrainin,SoftwareType,DateUTC
2013-05-25 00:00:00,50.5,13.0,30.22,West,260,0.0,0.0,22,0.00,CLR,,0.00,WeatherDisplay:10.37,2013-05-25 04:00:00,
2013-05-25 00:01:00,50.4,12.9,30.22,West,260,0.0,0.0,22,0.00,CLR,,0.00,WeatherDisplay:10.37,2013-05-25 04:01:00,
2013-05-25 00:06:00,51.0,13.4,30.22,WNW,296,3.6,6.9,22,0.00,CLR,,0.00,WeatherDisplay:10.37,2013-05-25 04:06:00,
2013-05-25 00:11:00,50.7,13.2,30.22,WNW,296,0.0,0.0,22,0.00,CLR,,0.00,WeatherDisplay:10.37,2013-05-25 04:11:00,
2013-05-25 00:16:00,50.4,12.9,30.22,NNW,342,5.7,10.4,22,0.00,CLR,,0.00,WeatherDisplay:10.37,2013-05-25 04:16:00,
2013-05-25 00:17:00,50.4,12.9,30.22,NW,311,4.9,8.1,22,0.00,CLR,,0.00,WeatherDisplay:10.37,2013-05-25 04:17:00,
2013-05-25 00:21:00,50.7,14.2,30.22,NNW,330,0.0,0.0,23,0.00,CLR,,0.00,WeatherDisplay:10.37,2013-05-25 04:21:00,
2013-05-25 00:22:00,50.1,12.7,30.22,NNW,330,0.0,0.0,22,0.00,CLR,,0.00,WeatherDisplay:10.37,2013-05-25 04:22:00,
2013-05-25 00:26:00,51.0,13.4,30.22,NNW,330,0.0,0.0,22,0.00,CLR,,0.00,WeatherDisplay:10.37,2013-05-25 04:26:00,
2013-05-25 00:27:00,50.4,12.9,30.22,NNW,330,0.0,0.0,22,0.00,CLR,,0.00,WeatherDisplay:10.37,2013-05-25 04:27:00,
2013-05-25 00:31:00,50.3,12.8,30.22,WNW,288,2.7,9.2,22,0.00,CLR,,0.00,WeatherDisplay:10.37,2013-05-25 04:31:00,
2013-05-25 00:32:00,50.4,12.9,30.22,WNW,299,4.5,5.8,22,0.00,CLR,,0.00,WeatherDisplay:10.37,2013-05-25 04:32:00,
2013-05-25 00:33:00,50.5,13.0,30.22,WNW,296,3.7,5.8,22,0.00,CLR,,0.00,WeatherDisplay:10.37,2013-05-25 04:33:00,
2013-05-25 00:36:00,50.3,14.8,30.22,WNW,296,0.0,0.0,24,0.00,CLR,,0.00,WeatherDisplay:10.37,2013-05-25 04:36:00,
2013-05-25 00:37:00,50.3,14.8,30.22,WNW,296,0.0,0.0,24,0.00,CLR,,0.00,WeatherDisplay:10.37,2013-05-25 04:37:00,
2013-05-25 00:38:00,50.4,14.9,30.22,WNW,296,0.0,0.0,24,0.00,CLR,,0.00,WeatherDisplay:10.37,2013-05-25 04:38:00,
2013-05-25 00:41:00,50.4,14.9,30.22,NW,319,4.3,8.1,24,0.00,CLR,,0.00,WeatherDisplay:10.37,2013-05-25 04:41:00,
2013-05-25 00:42:00,50.1,14.7,30.22,NW,323,4.8,6.9,24,0.00,CLR,,0.00,WeatherDisplay:10.37,2013-05-25 04:42:00,
2013-05-25 00:43:00,50.3,13.9,30.22,NNW,332,5.7,6.9,23,0.00,CLR,,0.00,WeatherDisplay:10.37,2013-05-25 04:43:00,
2013-05-25 00:46:00,50.1,14.7,30.22,NW,312,4.3,6.2,24,0.00,CLR,,0.00,WeatherDisplay:10.37,2013-05-25 04:46:00,
2013-05-25 00:47:00,50.4,14.9,30.22,NW,315,4.9,6.9,24,0.00,CLR,,0.00,WeatherDisplay:10.37,2013-05-25 04:47:00,
2013-05-25 00:48:00,50.3,14.8,30.22,WNW,299,3.0,6.9,24,0.00,CLR,,0.00,WeatherDisplay:10.37,2013-05-25 04:48:00,
2013-05-25 00:49:00,50.3,14.8,30.22,NW,318,0.1,6.3,24,0.00,CLR,,0.00,WeatherDisplay:10.37,2013-05-25 04:49:00,
2013-05-25 00:52:00,49.9,14.5,30.22,NNW,343,5.9,10.4,24,0.00,CLR,,0.00,WeatherDisplay:10.37,2013-05-25 04:52:00,
2013-05-25 00:53:00,50.1,14.7,30.22,NW,318,1.1,4.6,24,0.00,CLR,,0.00,WeatherDisplay:10.37,2013-05-25 04:53:00,
2013-05-25 00:54:00,50.3,15.8,30.22,NNW,344,4.9,9.2,25,0.00,CLR,,0.00,WeatherDisplay:10.37,2013-05-25 04:54:00,
2013-05-25 00:57:00,50.2,14.7,30.22,WNW,294,6.1,9.2,24,0.00,CLR,,0.00,WeatherDisplay:10.37,2013-05-25 04:57:00,
2013-05-25 00:58:00,50.0,14.6,30.22,NW,326,8.6,13.8,24,0.00,CLR,,0.00,WeatherDisplay:10.37,2013-05-25 04:58:00,
2013-05-25 01:00:00,50.2,13.8,30.22,NW,323,8.1,13.8,23,0.00,CLR,,0.00,WeatherDisplay:10.37,2013-05-25 05:00:00,
2013-05-25 01:02:00,50.3,12.8,30.22,West,271,8.5,15.0,22,0.00,CLR,,0.00,WeatherDisplay:10.37,2013-05-25 05:02:00,
2013-05-25 01:03:00,50.1,12.7,30.22,North,360,5.6,15.0,22,0.00,CLR,,0.00,WeatherDisplay:10.37,2013-05-25 05:03:00,
2013-05-25 01:06:00,50.3,14.8,30.22,NW,318,4.5,6.9,24,0.00,CLR,,0.00,WeatherDisplay:10.37,2013-05-25 05:06:00,
2013-05-25 01:07:00,50.1,13.7,30.22,NW,318,4.4,8.1,23,0.00,CLR,,0.00,WeatherDisplay:10.37,2013-05-25 05:07:00,
2013-05-25 01:08:00,50.2,14.7,30.22,NW,323,2.0,6.9,24,0.00,CLR,,0.00,WeatherDisplay:10.37,2013-05-25 05:08:00,
2013-05-25 01:11:00,50.2,14.7,30.22,NW,306,5.3,10.4,24,0.00,CLR,,0.00,WeatherDisplay:10.37,2013-05-25 05:11:00,
2013-05-25 01:12:00,50.2,14.7,30.22,NW,313,3.2,8.1,24,0.00,CLR,,0.00,WeatherDisplay:10.37,2013-05-25 05:12:00,
2013-05-25 01:13:00,50.0,14.6,30.22,NW,305,3.0,9.2,24,0.00,CLR,,0.00,WeatherDisplay:10.37,2013-05-25 05:13:00,
2013-05-25 01:16:00,50.0,13.6,30.22,NNW,333,6.8,9.2,23,0.00,CLR,,0.00,WeatherDisplay:10.37,2013-05-25 05:16:00,
2013-05-25 01:17:00,50.0,13.6,30.22,WNW,289,6.2,10.4,23,0.00,CLR,,0.00,WeatherDisplay:10.37,2013-05-25 05:17:00,
2013-05-25 01:18:00,50.0,13.6,30.22,WNW,302,7.0,9.2,23,0.00,CLR,,0.00,WeatherDisplay:10.37,2013-05-25 05:18:00,
2013-05-25 01:19:00,50.0,13.6,30.22,NNW,333,5.9,10.4,23,0.00,CLR,,0.00,WeatherDisplay:10.37,2013-05-25 05:19:00,
2013-05-25 01:21:00,50.2,13.8,30.22,NNW,330,7.9,12.7,23,0.00,CLR,,0.00,WeatherDisplay:10.37,2013-05-25 05:21:00,
2013-05-25 01:22:00,50.2,13.8,30.22,North,356,1.3,11.5,23,0.00,CLR,,0.00,WeatherDisplay:10.37,2013-05-25 05:22:00,
2013-05-25 01:24:00,50.0,12.6,30.22,North,350,6.3,11.5,22,0.00,CLR,,0.00,WeatherDisplay:10.37,2013-05-25 05:24:00,
2013-05-25 01:26:00,50.1,13.7,30.22,NW,315,4.1,9.2,23,0.00,CLR,,0.00,WeatherDisplay:10.37,2013-05-25 05:26:00,
2013-05-25 01:28:00,50.1,13.7,30.22,NW,308,3.1,5.8,23,0.00,CLR,,0.00,WeatherDisplay:10.37,2013-05-25 05:28:00,
2013-05-25 01:29:00,50.0,13.6,30.22,NW,311,3.4,5.8,23,0.00,CLR,,0.00,WeatherDisplay:10.37,2013-05-25 05:29:00,
2013-05-25 01:31:00,49.8,14.4,30.22,NW,306,6.7,10.4,24,0.00,CLR,,0.00,WeatherDisplay:10.37,2013-05-25 05:31:00,
2013-05-25 01:33:00,49.8,13.4,30.22,NNW,333,7.8,12.7,23,0.00,CLR,,0.00,WeatherDisplay:10.37,2013-05-25 05:33:00,
2013-05-25 01:34:00,50.0,12.6,30.22,NW,304,8.3,12.7,22,0.00,CLR,,0.00,WeatherDisplay:10.37,2013-05-25 05:34:00,
2013-05-25 01:36:00,50.1,12.7,30.22,NW,325,5.1,10.4,22,0.00,CLR,,0.00,WeatherDisplay:10.37,2013-05-25 05:36:00,
2013-05-25 01:38:00,50.3,12.8,30.22,NNW,342,4.3,9.2,22,0.00,CLR,,0.00,WeatherDisplay:10.37,2013-05-25 05:38:00,
2013-05-25 01:39:00,50.1,12.7,30.22,North,11,5.0,9.2,22,0.00,CLR,,0.00,WeatherDisplay:10.37,2013-05-25 05:39:00,
2013-05-25 01:40:00,50.1,11.6,30.22,NNW,346,6.4,10.4,21,0.00,CLR,,0.00,WeatherDisplay:10.37,2013-05-25 05:40:00,
2013-05-25 01:42:00,50.1,12.7,30.22,WNW,289,3.1,6.9,22,0.00,CLR,,0.00,WeatherDisplay:10.37,2013-05-25 05:42:00,
2013-05-25 01:43:00,50.2,13.8,30.22,NNW,337,1.5,6.9,23,0.00,CLR,,0.00,WeatherDisplay:10.37,2013-05-25 05:43:00,
2013-05-25 01:44:00,50.1,13.7,30.22,NNW,344,3.5,5.8,23,0.00,CLR,,0.00,WeatherDisplay:10.37,2013-05-25 05:44:00,
2013-05-25 01:45:00,49.8,13.4,30.22,NW,313,3.8,6.9,23,0.00,CLR,,0.00,WeatherDisplay:10.37,2013-05-25 05:45:00,
2013-05-25 01:47:00,49.9,12.5,30.22,NW,304,5.6,8.1,22,0.00,CLR,,0.00,WeatherDisplay:10.37,2013-05-25 05:47:00,
2013-05-25 01:48:00,49.8,12.4,30.22,North,353,6.1,9.2,22,0.00,CLR,,0.00,WeatherDisplay:10.37,2013-05-25 05:48:00,
2013-05-25 01:50:00,49.8,13.4,30.22,NNW,329,1.8,8.1,23,0.00,CLR,,0.00,WeatherDisplay:10.37,2013-05-25 05:50:00,
2013-05-25 01:53:00,49.8,14.4,30.22,NNW,330,1.1,9.6,24,0.00,CLR,,0.00,WeatherDisplay:10.37,2013-05-25 05:53:00,
2013-05-25 01:55:00,49.7,12.3,30.22,NNW,332,7.1,10.4,22,0.00,CLR,,0.00,WeatherDisplay:10.37,2013-05-25 05:55:00,
2013-05-25 01:59:00,49.7,13.3,30.22,West,263,4.2,6.9,23,0.00,CLR,,0.00,WeatherDisplay:10.37,2013-05-25 05:59:00,
2013-05-25 02:00:00,49.7,13.3,30.22,SSW,200,2.4,4.6,23,0.00,CLR,,0.00,WeatherDisplay:10.37,2013-05-25 06:00:00,
2013-05-25 02:01:00,49.5,13.2,30.22,NW,325,4.6,6.9,23,0.00,CLR,,0.00,WeatherDisplay:10.37,2013-05-25 06:01:00,
2013-05-25 02:04:00,49.5,14.1,30.22,NW,325,4.2,10.4,24,0.00,CLR,,0.00,WeatherDisplay:10.37,2013-05-25 06:04:00,
2013-05-25 02:05:00,49.6,14.2,30.22,West,265,3.6,8.1,24,0.00,CLR,,0.00,WeatherDisplay:10.37,2013-05-25 06:05:00,
2013-05-25 02:06:00,49.1,12.8,30.22,NW,325,3.1,5.8,23,0.00,CLR,,0.00,WeatherDisplay:10.37,2013-05-25 06:06:00,
2013-05-25 02:09:00,49.6,10.1,30.22,NNW,328,6.8,10.4,20,0.00,CLR,,0.00,WeatherDisplay:10.37,2013-05-25 06:09:00,
2013-05-25 02:10:00,49.7,11.3,30.22,NW,322,5.7,8.1,21,0.00,CLR,,0.00,WeatherDisplay:10.37,2013-05-25 06:10:00,
2013-05-25 02:11:00,49.6,12.2,30.22,WNW,298,1.6,6.9,22,0.00,CLR,,0.00,WeatherDisplay:10.37,2013-05-25 06:11:00,
2013-05-25 02:14:00,49.7,12.3,30.22,NW,319,0.9,6.9,22,0.00,CLR,,0.00,WeatherDisplay:10.37,2013-05-25 06:14:00,
2013-05-25 02:15:00,49.6,12.2,30.21,NW,315,1.1,3.5,22,0.00,CLR,,0.00,WeatherDisplay:10.37,2013-05-25 06:15:00,
2013-05-25 02:16:00,49.7,13.3,30.21,NW,315,0.0,0.0,23,0.00,CLR,,0.00,WeatherDisplay:10.37,2013-05-25 06:16:00,
2013-05-25 02:18:00,49.4,13.1,30.21,NW,320,2.2,5.8,23,0.00,CLR,,0.00,WeatherDisplay:10.37,2013-05-25 06:18:00,
2013-05-25 02:19:00,49.3,12.0,30.21,North,352,6.4,9.3,22,0.00,CLR,,0.00,WeatherDisplay:10.37,2013-05-25 06:19:00,
2013-05-25 02:20:00,49.1,11.8,30.21,NW,308,4.5,9.2,22,0.00,CLR,,0.00,WeatherDisplay:10.37,2013-05-25 06:20:00,
2013-05-25 02:21:00,49.2,12.9,30.21,NW,318,0.5,5.8,23,0.00,CLR,,0.00,WeatherDisplay:10.37,2013-05-25 06:21:00,
2013-05-25 02:23:00,49.4,12.1,30.21,NW,315,5.2,9.2,22,0.00,CLR,,0.00,WeatherDisplay:10.37,2013-05-25 06:23:00,
2013-05-25 02:24:00,49.0,10.7,30.21,NW,313,5.8,8.1,21,0.00,CLR,,0.00,WeatherDisplay:10.37,2013-05-25 06:24:00,
2013-05-25 02:25:00,49.2,11.9,30.21,NNW,343,2.0,10.4,22,0.00,CLR,,0.00,WeatherDisplay:10.37,2013-05-25 06:25:00,
2013-05-25 02:26:00,49.3,10.9,30.21,NNW,329,3.2,8.1,21,0.00,CLR,,0.00,WeatherDisplay:10.37,2013-05-25 06:26:00,
2013-05-25 02:28:00,49.2,10.9,30.22,NW,311,3.1,4.6,21,0.00,CLR,,0.00,WeatherDisplay:10.37,2013-05-25 06:28:00,
2013-05-25 02:29:00,49.3,12.0,30.22,WNW,291,2.2,6.9,22,0.00,CLR,,0.00,WeatherDisplay:10.37,2013-05-25 06:29:00,
2013-05-25 02:30:00,49.1,11.8,30.22,WNW,291,0.0,3.5,22,0.00,CLR,,0.00,WeatherDisplay:10.37,2013-05-25 06:30:00,
2013-05-25 02:31:00,49.3,12.0,30.22,North,1,2.2,8.1,22,0.00,CLR,,0.00,WeatherDisplay:10.37,2013-05-25 06:31:00,
2013-05-25 02:33:00,49.5,13.2,30.22,WNW,289,2.4,6.9,23,0.00,CLR,,0.00,WeatherDisplay:10.37,2013-05-25 06:33:00,
2013-05-25 02:34:00,49.0,11.7,30.22,NW,326,1.1,8.3,22,0.00,CLR,,0.00,WeatherDisplay:10.37,2013-05-25 06:34:00,
2013-05-25 02:35:00,49.4,12.1,30.22,NNW,337,3.2,9.2,22,0.00,CLR,,0.00,WeatherDisplay:10.37,2013-05-25 06:35:00,
2013-05-25 02:36:00,49.4,12.1,30.22,West,270,1.7,5.8,22,0.00,CLR,,0.00,WeatherDisplay:10.37,2013-05-25 06:36:00,
2013-05-25 02:37:00,49.3,12.0,30.22,SW,224,1.3,4.6,22,0.00,CLR,,0.00,WeatherDisplay:10.37,2013-05-25 06:37:00,
2013-05-25 02:38:00,49.2,12.9,30.22,SW,224,0.0,0.0,23,0.00,CLR,,0.00,WeatherDisplay:10.37,2013-05-25 06:38:00,
2013-05-25 02:39:00,49.1,13.8,30.22,SW,224,0.0,0.0,24,0.00,CLR,,0.00,WeatherDisplay:10.37,2013-05-25 06:39:00,
2013-05-25 02:41:00,49.1,13.8,30.22,SW,224,0.0,0.0,24,0.00,CLR,,0.00,WeatherDisplay:10.37,2013-05-25 06:41:00,
2013-05-25 02:42:00,49.0,13.7,30.22,SW,224,0.0,0.0,24,0.00,CLR,,0.00,WeatherDisplay:10.37,2013-05-25 06:42:00,
2013-05-25 02:43:00,49.0,13.7,30.22,NW,305,2.8,5.8,24,0.00,CLR,,0.00,WeatherDisplay:10.37,2013-05-25 06:43:00,
2013-05-25 02:44:00,48.9,12.7,30.22,NNW,339,5.7,8.1,23,0.00,CLR,,0.00,WeatherDisplay:10.37,2013-05-25 06:44:00,
2013-05-25 02:46:00,48.5,12.3,30.22,NW,305,5.9,9.2,23,0.00,CLR,,0.00,WeatherDisplay:10.37,2013-05-25 06:46:00,
2013-05-25 02:47:00,48.6,13.4,30.22,NW,325,4.0,6.9,24,0.00,CLR,,0.00,WeatherDisplay:10.37,2013-05-25 06:47:00,
2013-05-25 02:48:00,48.6,13.4,30.22,NNE,31,1.0,4.6,24,0.00,CLR,,0.00,WeatherDisplay:10.37,2013-05-25 06:48:00,
2013-05-25 02:49:00,48.8,16.2,30.22,NNE,31,0.0,3.5,27,0.00,CLR,,0.00,WeatherDisplay:10.37,2013-05-25 06:49:00,
2013-05-25 02:51:00,48.5,13.3,30.22,NNW,330,5.5,8.1,24,0.00,CLR,,0.00,WeatherDisplay:10.37,2013-05-25 06:51:00,
2013-05-25 02:52:00,48.6,12.4,30.22,NNW,343,2.1,8.1,23,0.00,CLR,,0.00,WeatherDisplay:10.37,2013-05-25 06:52:00,
2013-05-25 02:53:00,48.5,11.3,30.22,North,349,1.9,5.8,22,0.00,CLR,,0.00,WeatherDisplay:10.37,2013-05-25 06:53:00,
2013-05-25 02:54:00,48.9,12.7,30.22,North,8,3.7,5.8,23,0.00,CLR,,0.00,WeatherDisplay:10.37,2013-05-25 06:54:00,
2013-05-25 02:56:00,48.5,12.3,30.22,NW,322,3.6,6.9,23,0.00,CLR,,0.00,WeatherDisplay:10.37,2013-05-25 06:56:00,
2013-05-25 02:57:00,48.7,12.5,30.22,NNW,328,3.4,5.8,23,0.00,CLR,,0.00,WeatherDisplay:10.37,2013-05-25 06:57:00,
2013-05-25 02:59:00,48.7,13.5,30.22,NW,308,0.0,3.5,24,0.00,CLR,,0.00,WeatherDisplay:10.37,2013-05-25 06:59:00,
2013-05-25 03:00:00,48.6,12.4,30.22,NW,313,2.8,5.8,23,0.00,CLR,,0.00,WeatherDisplay:10.37,2013-05-25 07:00:00,
2013-05-25 03:01:00,48.5,12.3,30.22,NNW,333,2.9,5.8,23,0.00,CLR,,0.00,WeatherDisplay:10.37,2013-05-25 07:01:00,
2013-05-25 03:02:00,48.5,12.3,30.22,NNW,333,2.7,5.8,23,0.00,CLR,,0.00,WeatherDisplay:10.37,2013-05-25 07:02:00,
2013-05-25 03:03:00,48.6,12.4,30.22,North,0,2.6,9.2,23,0.00,CLR,,0.00,WeatherDisplay:10.37,2013-05-25 07:03:00,
2013-05-25 03:04:00,48.6,11.4,30.22,NNW,335,1.3,4.8,22,0.00,CLR,,0.00,WeatherDisplay:10.37,2013-05-25 07:04:00,
2013-05-25 03:05:00,48.5,11.3,30.22,NNW,328,6.3,10.4,22,0.00,CLR,,0.00,WeatherDisplay:10.37,2013-05-25 07:05:00,
2013-05-25 03:07:00,48.6,11.4,30.22,WNW,296,4.0,10.4,22,0.00,CLR,,0.00,WeatherDisplay:10.37,2013-05-25 07:07:00,
2013-05-25 03:08:00,48.5,12.3,30.22,North,360,3.3,6.9,23,0.00,CLR,,0.00,WeatherDisplay:10.37,2013-05-25 07:08:00,
2013-05-25 03:09:00,48.8,11.6,30.22,NNW,339,2.7,4.7,22,0.00,CLR,,0.00,WeatherDisplay:10.37,2013-05-25 07:09:00,
2013-05-25 03:10:00,48.5,11.3,30.22,NNW,346,4.0,6.9,22,0.00,CLR,,0.00,WeatherDisplay:10.37,2013-05-25 07:10:00,
2013-05-25 03:12:00,48.6,11.4,30.23,NNE,20,3.1,6.9,22,0.00,CLR,,0.00,WeatherDisplay:10.37,2013-05-25 07:12:00,
2013-05-25 03:13:00,48.4,11.2,30.22,North,3,0.9,2.3,22,0.00,CLR,,0.00,WeatherDisplay:10.37,2013-05-25 07:13:00,
2013-05-25 03:14:00,48.7,12.5,30.22,NNW,328,1.0,4.6,23,0.00,CLR,,0.00,WeatherDisplay:10.37,2013-05-25 07:14:00,
2013-05-25 03:16:00,48.5,12.3,30.22,NNW,328,0.5,3.5,23,0.00,CLR,,0.00,WeatherDisplay:10.37,2013-05-25 07:16:00,
2013-05-25 03:17:00,48.5,12.3,30.22,North,352,0.7,4.6,23,0.00,CLR,,0.00,WeatherDisplay:10.37,2013-05-25 07:17:00,
2013-05-25 03:18:00,48.5,12.3,30.22,NNW,336,4.2,4.6,23,0.00,CLR,,0.00,WeatherDisplay:10.37,2013-05-25 07:18:00,
2013-05-25 03:19:00,48.5,11.3,30.22,NNW,336,0.5,8.1,22,0.00,CLR,,0.00,WeatherDisplay:10.37,2013-05-25 07:19:00,
2013-05-25 03:21:00,48.5,13.3,30.22,NNW,336,0.0,0.0,24,0.00,CLR,,0.00,WeatherDisplay:10.37,2013-05-25 07:21:00,
2013-05-25 03:22:00,48.5,12.3,30.22,NW,320,1.7,4.6,23,0.00,CLR,,0.00,WeatherDisplay:10.37,2013-05-25 07:22:00,
2013-05-25 03:23:00,48.5,12.3,30.22,NW,311,0.6,4.6,23,0.00,CLR,,0.00,WeatherDisplay:10.37,2013-05-25 07:23:00,
2013-05-25 03:24:00,48.5,12.3,30.22,NW,311,0.0,4.6,23,0.00,CLR,,0.00,WeatherDisplay:10.37,2013-05-25 07:24:00,
2013-05-25 03:26:00,48.5,12.3,30.22,NNW,330,3.5,6.9,23,0.00,CLR,,0.00,WeatherDisplay:10.37,2013-05-25 07:26:00,
2013-05-25 03:27:00,48.5,12.3,30.22,NNW,335,4.0,7.6,23,0.00,CLR,,0.00,WeatherDisplay:10.37,2013-05-25 07:27:00,
2013-05-25 03:28:00,48.5,13.3,30.22,NW,315,2.6,8.1,24,0.00,CLR,,0.00,WeatherDisplay:10.37,2013-05-25 07:28:00,
2013-05-25 03:29:00,48.5,11.3,30.22,North,3,1.7,6.9,22,0.00,CLR,,0.00,WeatherDisplay:10.37,2013-05-25 07:29:00,
2013-05-25 03:31:00,48.5,12.3,30.22,North,6,3.3,6.9,23,0.00,CLR,,0.00,WeatherDisplay:10.37,2013-05-25 07:31:00,
2013-05-25 03:32:00,48.5,12.3,30.22,North,356,2.7,5.8,23,0.00,CLR,,0.00,WeatherDisplay:10.37,2013-05-25 07:32:00,
2013-05-25 03:33:00,48.5,12.3,30.22,NNW,343,4.0,5.8,23,0.00,CLR,,0.00,WeatherDisplay:10.37,2013-05-25 07:33:00,
2013-05-25 03:34:00,48.5,12.3,30.22,NNE,18,4.0,8.1,23,0.00,CLR,,0.00,WeatherDisplay:10.37,2013-05-25 07:34:00,
2013-05-25 03:37:00,48.5,11.3,30.22,North,353,3.1,8.1,22,0.00,CLR,,0.00,WeatherDisplay:10.37,2013-05-25 07:37:00,
2013-05-25 03:38:00,48.5,12.3,30.22,NNW,335,1.1,5.8,23,0.00,CLR,,0.00,WeatherDisplay:10.37,2013-05-25 07:38:00,
2013-05-25 03:39:00,48.5,11.3,30.22,NNE,25,1.6,4.6,22,0.00,CLR,,0.00,WeatherDisplay:10.37,2013-05-25 07:39:00,
2013-05-25 03:42:00,48.5,11.3,30.22,NNE,13,3.8,6.9,22,0.00,CLR,,0.00,WeatherDisplay:10.37,2013-05-25 07:42:00,
2013-05-25 03:43:00,48.5,12.3,30.22,NW,326,2.2,5.8,23,0.00,CLR,,0.00,WeatherDisplay:10.37,2013-05-25 07:43:00,
2013-05-25 03:44:00,48.5,12.3,30.22,NW,326,0.0,3.5,23,0.00,CLR,,0.00,WeatherDisplay:10.37,2013-05-25 07:44:00,
2013-05-25 03:47:00,48.5,12.3,30.22,NNW,339,1.6,4.8,23,0.00,CLR,,0.00,WeatherDisplay:10.37,2013-05-25 07:47:00,
2013-05-25 03:48:00,48.5,12.3,30.22,North,1,3.9,7.5,23,0.00,CLR,,0.00,WeatherDisplay:10.37,2013-05-25 07:48:00,
2013-05-25 03:49:00,48.5,12.3,30.22,North,349,3.8,8.1,23,0.00,CLR,,0.00,WeatherDisplay:10.37,2013-05-25 07:49:00,
2013-05-25 03:53:00,48.5,13.3,30.22,North,7,0.0,0.0,24,0.00,CLR,,0.00,WeatherDisplay:10.37,2013-05-25 07:53:00,
2013-05-25 03:54:00,48.5,11.3,30.22,North,7,0.0,0.0,22,0.00,CLR,,0.00,WeatherDisplay:10.37,2013-05-25 07:54:00,
2013-05-25 03:58:00,48.5,12.3,30.23,North,7,0.0,0.0,23,0.00,CLR,,0.00,WeatherDisplay:10.37,2013-05-25 07:58:00,
2013-05-25 03:59:00,48.5,12.3,30.23,NW,309,2.3,6.9,23,0.00,CLR,,0.00,WeatherDisplay:10.37,2013-05-25 07:59:00,
2013-05-25 04:00:00,48.5,12.3,30.23,North,350,6.2,9.2,23,0.00,CLR,,0.00,WeatherDisplay:10.37,2013-05-25 08:00:00,
2013-05-25 04:03:00,48.4,13.2,30.23,NW,326,0.0,0.0,24,0.00,CLR,,0.00,WeatherDisplay:10.37,2013-05-25 08:03:00,
2013-05-25 04:04:00,48.4,15.0,30.23,NW,326,0.0,0.0,26,0.00,CLR,,0.00,WeatherDisplay:10.37,2013-05-25 08:04:00,
2013-05-25 04:05:00,48.4,15.0,30.23,NW,326,0.0,0.0,26,0.00,CLR,,0.00,WeatherDisplay:10.37,2013-05-25 08:05:00,
2013-05-25 04:08:00,48.3,14.1,30.24,NW,326,0.0,0.0,25,0.00,CLR,,0.00,WeatherDisplay:10.37,2013-05-25 08:08:00,
2013-05-25 04:09:00,48.2,14.9,30.24,NW,326,0.0,0.0,26,0.00,CLR,,0.00,WeatherDisplay:10.37,2013-05-25 08:09:00,
2013-05-25 04:10:00,48.2,14.9,30.24,NW,326,0.0,0.0,26,0.00,CLR,,0.00,WeatherDisplay:10.37,2013-05-25 08:10:00,
2013-05-25 04:13:00,47.8,15.4,30.24,West,281,0.5,3.5,27,0.00,CLR,,0.00,WeatherDisplay:10.37,2013-05-25 08:13:00,
2013-05-25 04:14:00,47.6,14.3,30.24,North,350,2.5,6.9,26,0.00,CLR,,0.00,WeatherDisplay:10.37,2013-05-25 08:14:00,
2013-05-25 04:15:00,47.8,14.5,30.24,North,350,2.2,4.6,26,0.00,CLR,,0.00,WeatherDisplay:10.37,2013-05-25 08:15:00,
2013-05-25 04:18:00,47.7,14.4,30.25,NW,312,2.7,4.9,26,0.00,CLR,,0.00,WeatherDisplay:10.37,2013-05-25 08:18:00,
2013-05-25 04:19:00,47.9,14.6,30.25,NW,316,0.8,8.1,26,0.00,CLR,,0.00,WeatherDisplay:10.37,2013-05-25 08:19:00,
2013-05-25 04:20:00,48.0,14.7,30.25,NW,316,0.1,3.5,26,0.00,CLR,,0.00,WeatherDisplay:10.37,2013-05-25 08:20:00,
2013-05-25 04:24:00,47.7,13.5,30.25,West,278,5.1,8.1,25,0.00,CLR,,0.00,WeatherDisplay:10.37,2013-05-25 08:24:00,
2013-05-25 04:25:00,47.9,14.6,30.25,West,261,1.2,5.8,26,0.00,CLR,,0.00,WeatherDisplay:10.37,2013-05-25 08:25:00,
2013-05-25 04:26:00,48.0,12.9,30.25,WNW,301,4.0,9.2,24,0.00,CLR,,0.00,WeatherDisplay:10.37,2013-05-25 08:26:00,
2013-05-25 04:29:00,47.8,12.7,30.25,NW,306,5.3,6.9,24,0.00,CLR,,0.00,WeatherDisplay:10.37,2013-05-25 08:29:00,
2013-05-25 04:30:00,48.0,13.8,30.25,NW,313,2.7,6.9,25,0.00,CLR,,0.00,WeatherDisplay:10.37,2013-05-25 08:30:00,
2013-05-25 04:31:00,48.1,13.0,30.25,NW,313,0.0,0.0,24,0.00,CLR,,0.00,WeatherDisplay:10.37,2013-05-25 08:31:00,
2013-05-25 04:34:00,48.0,12.9,30.25,West,260,1.2,0.0,24,0.00,CLR,,0.00,WeatherDisplay:10.37,2013-05-25 08:34:00,
2013-05-25 04:35:00,48.1,13.0,30.25,West,260,1.2,4.6,24,0.00,CLR,,0.00,WeatherDisplay:10.37,2013-05-25 08:35:00,
2013-05-25 04:36:00,48.1,13.9,30.25,West,260,0.0,0.0,25,0.00,CLR,,0.00,WeatherDisplay:10.37,2013-05-25 08:36:00,
2013-05-25 04:39:00,47.9,14.6,30.25,NW,306,0.0,0.0,26,0.00,CLR,,0.00,WeatherDisplay:10.37,2013-05-25 08:39:00,
2013-05-25 04:40:00,48.0,12.9,30.25,NW,306,0.0,0.0,24,0.00,CLR,,0.00,WeatherDisplay:10.37,2013-05-25 08:40:00,
2013-05-25 04:41:00,47.8,14.5,30.25,NW,306,0.0,0.0,26,0.00,CLR,,0.00,WeatherDisplay:10.37,2013-05-25 08:41:00,
2013-05-25 04:44:00,47.8,12.7,30.25,West,260,0.7,5.8,24,0.00,CLR,,0.00,WeatherDisplay:10.37,2013-05-25 08:44:00,
2013-05-25 04:45:00,48.0,12.9,30.25,West,260,0.0,0.0,24,0.00,CLR,,0.00,WeatherDisplay:10.37,2013-05-25 08:45:00,
2013-05-25 04:46:00,48.1,12.0,30.25,West,260,0.0,0.0,23,0.00,CLR,,0.00,WeatherDisplay:10.37,2013-05-25 08:46:00,
2013-05-25 04:47:00,48.2,13.0,30.25,West,260,0.0,0.0,24,0.00,CLR,,0.00,WeatherDisplay:10.37,2013-05-25 08:47:00,
2013-05-25 04:49:00,47.9,12.8,30.25,West,260,0.0,0.0,24,0.00,CLR,,0.00,WeatherDisplay:10.37,2013-05-25 08:49:00,
2013-05-25 04:50:00,48.2,13.0,30.25,West,260,0.0,0.0,24,0.00,CLR,,0.00,WeatherDisplay:10.37,2013-05-25 08:50:00,
2013-05-25 04:52:00,48.1,14.8,30.25,West,260,0.0,0.0,26,0.00,CLR,,0.00,WeatherDisplay:10.37,2013-05-25 08:52:00,
2013-05-25 04:55:00,48.1,18.1,30.25,West,260,0.0,0.0,30,0.00,CLR,,0.00,WeatherDisplay:10.37,2013-05-25 08:55:00,
2013-05-25 04:56:00,48.0,15.6,30.25,West,260,0.0,0.0,27,0.00,CLR,,0.00,WeatherDisplay:10.37,2013-05-25 08:56:00,
2013-05-25 04:57:00,48.1,16.5,30.25,West,260,0.0,0.0,28,0.00,CLR,,0.00,WeatherDisplay:10.37,2013-05-25 08:57:00,
2013-05-25 04:58:00,47.9,16.3,30.25,West,260,0.0,0.0,28,0.00,CLR,,0.00,WeatherDisplay:10.37,2013-05-25 08:58:00,
2013-05-25 05:00:00,47.9,17.9,30.25,West,260,0.0,0.0,30,0.00,CLR,,0.00,WeatherDisplay:10.37,2013-05-25 09:00:00,
2013-05-25 05:01:00,47.7,17.7,30.25,West,260,0.0,0.0,30,0.00,CLR,,0.00,WeatherDisplay:10.37,2013-05-25 09:01:00,
2013-05-25 05:02:00,47.6,16.1,30.26,West,260,0.0,0.0,28,0.00,CLR,,0.00,WeatherDisplay:10.37,2013-05-25 09:02:00,
2013-05-25 05:03:00,47.7,16.9,30.26,West,260,0.0,0.0,29,0.00,CLR,,0.00,WeatherDisplay:10.37,2013-05-25 09:03:00,
2013-05-25 05:05:00,47.5,18.3,30.26,West,260,0.0,0.0,31,0.00,CLR,,0.00,WeatherDisplay:10.37,2013-05-25 09:05:00,
2013-05-25 05:06:00,47.8,19.3,30.25,West,260,0.0,0.0,32,0.00,CLR,,0.00,WeatherDisplay:10.37,2013-05-25 09:06:00,
2013-05-25 05:07:00,47.6,19.9,30.26,West,260,0.0,0.0,33,0.00,CLR,,0.00,WeatherDisplay:10.37,2013-05-25 09:07:00,
2013-05-25 05:08:00,47.6,19.9,30.26,West,260,0.0,0.0,33,0.00,CLR,,0.00,WeatherDisplay:10.37,2013-05-25 09:08:00,
2013-05-25 05:10:00,47.4,14.2,30.26,SSW,193,0.0,4.6,26,0.00,CLR,,0.00,WeatherDisplay:10.37,2013-05-25 09:10:00,
2013-05-25 05:11:00,47.5,16.8,30.26,SSW,193,0.0,0.0,29,0.00,CLR,,0.00,WeatherDisplay:10.37,2013-05-25 09:11:00,
2013-05-25 05:12:00,47.5,16.8,30.26,SSW,193,0.0,0.0,29,0.00,CLR,,0.00,WeatherDisplay:10.37,2013-05-25 09:12:00,
2013-05-25 05:13:00,47.5,17.6,30.26,SSW,193,0.0,0.0,30,0.00,CLR,,0.00,WeatherDisplay:10.37,2013-05-25 09:13:00,
2013-05-25 05:16:00,47.7,20.0,30.26,SSW,193,0.0,0.0,33,0.00,CLR,,0.00,WeatherDisplay:10.37,2013-05-25 09:16:00,
2013-05-25 05:17:00,47.7,20.7,30.26,SSW,193,0.0,0.0,34,0.00,CLR,,0.00,WeatherDisplay:10.37,2013-05-25 09:17:00,
2013-05-25 05:18:00,47.7,22.0,30.26,SSW,193,0.0,0.0,36,0.00,CLR,,0.00,WeatherDisplay:10.37,2013-05-25 09:18:00,
2013-05-25 05:21:00,48.0,22.9,30.26,SSW,193,0.0,0.0,37,0.00,CLR,,0.00,WeatherDisplay:10.37,2013-05-25 09:21:00,
2013-05-25 05:22:00,47.9,22.8,30.26,SSW,193,0.0,0.0,37,0.00,CLR,,0.00,WeatherDisplay:10.37,2013-05-25 09:22:00,
2013-05-25 05:23:00,47.5,22.5,30.26,SSW,193,0.0,0.0,37,0.00,CLR,,0.00,WeatherDisplay:10.37,2013-05-25 09:23:00,
2013-05-25 05:26:00,47.3,15.8,30.26,SSW,193,0.0,0.0,28,0.00,CLR,,0.00,WeatherDisplay:10.37,2013-05-25 09:26:00,
2013-05-25 05:27:00,47.2,16.5,30.26,SSW,193,0.0,0.0,29,0.00,CLR,,0.00,WeatherDisplay:10.37,2013-05-25 09:27:00,
2013-05-25 05:28:00,47.0,18.6,30.26,SSW,193,0.0,0.0,32,0.00,CLR,,0.00,WeatherDisplay:10.37,2013-05-25 09:28:00,
2013-05-25 05:29:00,47.3,20.3,30.26,SSW,193,0.0,0.0,34,0.00,CLR,,0.00,WeatherDisplay:10.37,2013-05-25 09:29:00,
2013-05-25 05:31:00,47.3,22.3,30.26,SSW,193,0.0,0.0,37,0.00,CLR,,0.00,WeatherDisplay:10.37,2013-05-25 09:31:00,
2013-05-25 05:32:00,47.1,18.7,30.26,SSW,193,0.0,0.0,32,0.00,CLR,,0.00,WeatherDisplay:10.37,2013-05-25 09:32:00,
2013-05-25 05:33:00,47.1,17.2,30.26,SSW,193,0.0,0.0,30,0.00,CLR,,0.00,WeatherDisplay:10.37,2013-05-25 09:33:00,
2013-05-25 05:34:00,46.8,17.7,30.26,SSW,193,0.0,0.0,31,0.00,CLR,,0.00,WeatherDisplay:10.37,2013-05-25 09:34:00,
2013-05-25 05:37:00,46.5,20.9,30.26,SSW,193,0.0,0.0,36,0.00,CLR,,0.00,WeatherDisplay:10.37,2013-05-25 09:37:00,
2013-05-25 05:38:00,46.4,21.5,30.26,SSW,193,0.0,0.0,37,0.00,CLR,,0.00,WeatherDisplay:10.37,2013-05-25 09:38:00,
2013-05-25 05:39:00,46.3,22.0,30.26,SSW,193,0.0,0.0,38,0.00,CLR,,0.00,WeatherDisplay:10.37,2013-05-25 09:39:00,
2013-05-25 05:42:00,46.0,17.7,30.27,SSW,193,0.0,0.0,32,0.00,CLR,,0.00,WeatherDisplay:10.37,2013-05-25 09:42:00,
2013-05-25 05:43:00,46.0,17.7,30.27,SSW,193,0.0,0.0,32,0.00,CLR,,0.00,WeatherDisplay:10.37,2013-05-25 09:43:00,
2013-05-25 05:44:00,45.8,19.7,30.26,SSW,193,0.0,0.0,35,0.00,CLR,,0.00,WeatherDisplay:10.37,2013-05-25 09:44:00,
2013-05-25 05:47:00,45.5,18.0,30.27,SSW,193,0.0,0.0,33,0.00,CLR,,0.00,WeatherDisplay:10.37,2013-05-25 09:47:00,
2013-05-25 05:48:00,45.9,20.4,30.27,SSW,193,0.0,0.0,36,0.00,CLR,,0.00,WeatherDisplay:10.37,2013-05-25 09:48:00,
2013-05-25 05:49:00,45.6,20.8,30.27,SSW,193,0.0,0.0,37,0.00,CLR,,0.00,WeatherDisplay:10.37,2013-05-25 09:49:00,
2013-05-25 05:52:00,45.6,18.8,30.27,SSW,193,0.0,0.0,34,0.00,CLR,,0.00,WeatherDisplay:10.37,2013-05-25 09:52:00,
2013-05-25 05:53:00,45.4,14.1,30.27,SSW,193,0.0,0.0,28,0.00,CLR,,0.00,WeatherDisplay:10.37,2013-05-25 09:53:00,
2013-05-25 05:54:00,45.4,17.9,30.27,SSW,193,0.0,0.0,33,0.00,CLR,,0.00,WeatherDisplay:10.37,2013-05-25 09:54:00,
2013-05-25 05:55:00,45.2,17.0,30.27,SSW,193,0.0,0.0,32,0.00,CLR,,0.00,WeatherDisplay:10.37,2013-05-25 09:55:00,
2013-05-25 05:57:00,45.1,16.2,30.27,SSW,193,0.0,0.0,31,0.00,CLR,,0.00,WeatherDisplay:10.37,2013-05-25 09:57:00,
2013-05-25 05:58:00,45.4,17.9,30.27,SSW,193,0.0,0.0,33,0.00,CLR,,0.00,WeatherDisplay:10.37,2013-05-25 09:58:00,
2013-05-25 05:59:00,45.4,18.6,30.27,SSW,193,0.0,0.0,34,0.00,CLR,,0.00,WeatherDisplay:10.37,2013-05-25 09:59:00,
2013-05-25 06:00:00,45.6,18.1,30.27,SSW,193,0.0,0.0,33,0.00,CLR,,0.00,WeatherDisplay:10.37,2013-05-25 10:00:00,
2013-05-25 06:03:00,45.4,19.3,30.27,SSW,193,0.0,0.0,35,0.00,CLR,,0.00,WeatherDisplay:10.37,2013-05-25 10:03:00,
2013-05-25 06:04:00,45.9,19.1,30.27,SSW,193,0.0,0.0,34,0.00,CLR,,0.00,WeatherDisplay:10.37,2013-05-25 10:04:00,
2013-05-25 06:05:00,45.8,20.3,30.27,SSW,193,0.0,0.0,36,0.00,CLR,,0.00,WeatherDisplay:10.37,2013-05-25 10:05:00,
2013-05-25 06:08:00,45.8,21.0,30.27,SSW,193,0.0,0.0,37,0.00,CLR,,0.00,WeatherDisplay:10.37,2013-05-25 10:08:00,
2013-05-25 06:09:00,45.9,19.8,30.27,SSW,193,0.0,0.0,35,0.00,CLR,,0.00,WeatherDisplay:10.37,2013-05-25 10:09:00,
2013-05-25 06:10:00,45.3,17.1,30.27,SSW,193,0.0,0.0,32,0.00,CLR,,0.00,WeatherDisplay:10.37,2013-05-25 10:10:00,
2013-05-25 06:13:00,45.4,17.9,30.27,SSW,193,0.0,0.0,33,0.00,CLR,,0.00,WeatherDisplay:10.37,2013-05-25 10:13:00,
2013-05-25 06:14:00,45.1,19.0,30.27,SSW,193,0.0,0.0,35,0.00,CLR,,0.00,WeatherDisplay:10.37,2013-05-25 10:14:00,
2013-05-25 06:15:00,45.2,19.8,30.27,SSW,193,0.0,0.0,36,0.00,CLR,,0.00,WeatherDisplay:10.37,2013-05-25 10:15:00,
2013-05-25 06:18:00,45.0,20.9,30.27,SSW,193,0.0,0.0,38,0.00,CLR,,0.00,WeatherDisplay:10.37,2013-05-25 10:18:00,
2013-05-25 06:19:00,44.8,17.4,30.28,SSW,193,0.0,0.0,33,0.00,CLR,,0.00,WeatherDisplay:10.37,2013-05-25 10:19:00,
2013-05-25 06:20:00,45.0,17.6,30.28,SSW,193,0.0,0.0,33,0.00,CLR,,0.00,WeatherDisplay:10.37,2013-05-25 10:20:00,
2013-05-25 06:21:00,44.9,18.9,30.28,SSW,193,0.0,0.0,35,0.00,CLR,,0.00,WeatherDisplay:10.37,2013-05-25 10:21:00,
2013-05-25 06:23:00,45.0,20.9,30.28,SSW,193,0.0,0.0,38,0.00,CLR,,0.00,WeatherDisplay:10.37,2013-05-25 10:23:00,
2013-05-25 06:24:00,45.2,19.8,30.28,SSW,193,0.0,0.0,36,0.00,CLR,,0.00,WeatherDisplay:10.37,2013-05-25 10:24:00,
2013-05-25 06:25:00,45.1,19.0,30.28,SSW,193,0.0,0.0,35,0.00,CLR,,0.00,WeatherDisplay:10.37,2013-05-25 10:25:00,
2013-05-25 06:26:00,45.1,18.4,30.28,SSW,193,0.0,0.0,34,0.00,CLR,,0.00,WeatherDisplay:10.37,2013-05-25 10:26:00,
2013-05-25 06:28:00,44.7,17.3,30.28,SSW,193,0.0,0.0,33,0.00,CLR,,0.00,WeatherDisplay:10.37,2013-05-25 10:28:00,
2013-05-25 06:30:00,44.5,17.8,30.28,SSW,193,0.0,0.0,34,0.00,CLR,,0.00,WeatherDisplay:10.37,2013-05-25 10:30:00,
2013-05-25 06:31:00,44.8,18.8,30.28,SSW,193,0.0,0.0,35,0.00,CLR,,0.00,WeatherDisplay:10.37,2013-05-25 10:31:00,
2013-05-25 06:33:00,45.1,23.3,30.28,SSW,193,0.0,0.0,42,0.00,CLR,,0.00,WeatherDisplay:10.37,2013-05-25 10:33:00,
2013-05-25 06:35:00,45.1,22.8,30.28,SSW,193,0.0,0.0,41,0.00,CLR,,0.00,WeatherDisplay:10.37,2013-05-25 10:35:00,
2013-05-25 06:36:00,45.3,16.4,30.29,SSW,193,0.0,0.0,31,0.00,CLR,,0.00,WeatherDisplay:10.37,2013-05-25 10:36:00,
2013-05-25 06:37:00,45.4,16.5,30.29,SSW,193,0.0,0.0,31,0.00,CLR,,0.00,WeatherDisplay:10.37,2013-05-25 10:37:00,
2013-05-25 06:38:00,45.8,16.8,30.28,SSW,193,0.0,0.0,31,0.00,CLR,,0.00,WeatherDisplay:10.37,2013-05-25 10:38:00,
2013-05-25 06:40:00,46.1,17.1,30.29,SSW,193,0.0,0.0,31,0.00,CLR,,0.00,WeatherDisplay:10.37,2013-05-25 10:40:00,
2013-05-25 06:41:00,46.3,16.5,30.29,SSW,193,0.0,0.0,30,0.00,CLR,,0.00,WeatherDisplay:10.37,2013-05-25 10:41:00,
2013-05-25 06:42:00,46.4,15.0,30.29,SSW,193,0.0,0.0,28,0.00,CLR,,0.00,WeatherDisplay:10.37,2013-05-25 10:42:00,
2013-05-25 06:43:00,46.8,16.2,30.29,SSW,193,0.0,0.0,29,0.00,CLR,,0.00,WeatherDisplay:10.37,2013-05-25 10:43:00,
2013-05-25 06:45:00,47.3,15.8,30.29,SSW,193,0.0,0.0,28,0.00,CLR,,0.00,WeatherDisplay:10.37,2013-05-25 10:45:00,
2013-05-25 06:46:00,46.9,15.4,30.29,SSW,193,0.0,0.0,28,0.00,CLR,,0.00,WeatherDisplay:10.37,2013-05-25 10:46:00,
2013-05-25 06:47:00,47.3,15.0,30.29,SSW,193,0.0,0.0,27,0.00,CLR,,0.00,WeatherDisplay:10.37,2013-05-25 10:47:00,
2013-05-25 06:48:00,47.5,14.3,30.29,SSW,193,0.0,0.0,26,0.00,CLR,,0.00,WeatherDisplay:10.37,2013-05-25 10:48:00,
2013-05-25 06:50:00,47.7,14.4,30.28,SSW,193,0.0,0.0,26,0.00,CLR,,0.00,WeatherDisplay:10.37,2013-05-25 10:50:00,
2013-05-25 06:51:00,47.7,14.4,30.28,SSW,193,0.0,0.0,26,0.00,CLR,,0.00,WeatherDisplay:10.37,2013-05-25 10:51:00,
2013-05-25 06:52:00,47.5,15.1,30.28,SSW,193,0.0,0.0,27,0.00,CLR,,0.00,WeatherDisplay:10.37,2013-05-25 10:52:00,
2013-05-25 06:53:00,48.0,14.7,30.28,SSW,193,0.0,0.0,26,0.00,CLR,,0.00,WeatherDisplay:10.37,2013-05-25 10:53:00,
2013-05-25 06:55:00,48.5,10.3,30.28,SSW,193,0.0,0.0,21,0.00,CLR,,0.00,WeatherDisplay:10.37,2013-05-25 10:55:00,
2013-05-25 06:56:00,48.5,9.2,30.28,SSW,193,0.0,0.0,20,0.00,CLR,,0.00,WeatherDisplay:10.37,2013-05-25 10:56:00,
2013-05-25 06:57:00,48.5,5.6,30.28,SSW,193,0.0,0.0,17,0.00,CLR,,0.00,WeatherDisplay:10.37,2013-05-25 10:57:00,
2013-05-25 06:58:00,48.5,9.2,30.28,SSW,193,0.0,0.0,20,0.00,CLR,,0.00,WeatherDisplay:10.37,2013-05-25 10:58:00,
2013-05-25 07:00:00,48.8,9.4,30.28,SSW,193,0.0,0.0,20,0.00,CLR,,0.00,WeatherDisplay:10.37,2013-05-25 11:00:00,
2013-05-25 07:01:00,48.7,9.4,30.28,SSW,193,0.0,0.0,20,0.00,CLR,,0.00,WeatherDisplay:10.37,2013-05-25 11:01:00,
2013-05-25 07:02:00,49.0,10.7,30.28,SSW,193,0.0,0.0,21,0.00,CLR,,0.00,WeatherDisplay:10.37,2013-05-25 11:02:00,
2013-05-25 07:03:00,49.5,10.0,30.28,SSW,193,0.0,0.0,20,0.00,CLR,,0.00,WeatherDisplay:10.37,2013-05-25 11:03:00,
2013-05-25 07:05:00,49.6,7.8,30.28,SSW,193,0.0,0.0,18,0.00,CLR,,0.00,WeatherDisplay:10.37,2013-05-25 11:05:00,
2013-05-25 07:06:00,49.7,7.8,30.28,SSW,193,0.0,0.0,18,0.00,CLR,,0.00,WeatherDisplay:10.37,2013-05-25 11:06:00,
2013-05-25 07:07:00,49.5,7.7,30.28,SSW,193,0.0,0.0,18,0.00,CLR,,0.00,WeatherDisplay:10.37,2013-05-25 11:07:00,
2013-05-25 07:08:00,49.9,9.2,30.28,SSW,193,0.0,0.0,19,0.00,CLR,,0.00,WeatherDisplay:10.37,2013-05-25 11:08:00,
2013-05-25 07:10:00,50.1,8.2,30.28,SSW,193,0.0,0.0,18,0.00,CLR,,0.00,WeatherDisplay:10.37,2013-05-25 11:10:00,
2013-05-25 07:11:00,50.1,8.2,30.28,SSW,193,0.0,0.0,18,0.00,CLR,,0.00,WeatherDisplay:10.37,2013-05-25 11:11:00,
2013-05-25 07:12:00,50.1,8.2,30.28,SSW,193,0.0,0.0,18,0.00,CLR,,0.00,WeatherDisplay:10.37,2013-05-25 11:12:00,
2013-05-25 07:15:00,50.1,6.9,30.28,SSW,193,0.0,0.0,17,0.00,CLR,,0.00,WeatherDisplay:10.37,2013-05-25 11:15:00,
2013-05-25 07:16:00,50.7,6.1,30.28,SSW,193,0.0,0.0,16,0.00,CLR,,0.00,WeatherDisplay:10.37,2013-05-25 11:16:00,
2013-05-25 07:17:00,50.5,3.0,30.28,SSW,193,0.0,0.0,14,0.00,CLR,,0.00,WeatherDisplay:10.37,2013-05-25 11:17:00,
2013-05-25 07:20:00,51.7,0.6,30.28,SSW,193,0.0,0.0,12,0.00,CLR,,0.00,WeatherDisplay:10.37,2013-05-25 11:20:00,
2013-05-25 07:21:00,51.3,0.3,30.28,SSW,193,0.0,0.0,12,0.00,CLR,,0.00,WeatherDisplay:10.37,2013-05-25 11:21:00,
2013-05-25 07:22:00,51.1,0.1,30.28,SSW,193,0.0,0.0,12,0.00,CLR,,0.00,WeatherDisplay:10.37,2013-05-25 11:22:00,
2013-05-25 07:23:00,52.0,0.9,30.28,SSW,193,0.0,0.0,12,0.00,CLR,,0.00,WeatherDisplay:10.37,2013-05-25 11:23:00,
2013-05-25 07:25:00,51.8,-7.8,30.28,SSW,193,0.0,0.0,8,0.00,CLR,,0.00,WeatherDisplay:10.37,2013-05-25 11:25:00,
2013-05-25 07:26:00,51.2,-5.8,30.28,SSW,193,0.0,0.0,9,0.00,CLR,,0.00,WeatherDisplay:10.37,2013-05-25 11:26:00,
2013-05-25 07:27:00,51.3,-3.6,30.28,SSW,193,0.0,0.0,10,0.00,CLR,,0.00,WeatherDisplay:10.37,2013-05-25 11:27:00,
2013-05-25 07:28:00,51.3,-5.8,30.29,SSW,193,0.0,0.0,9,0.00,CLR,,0.00,WeatherDisplay:10.37,2013-05-25 11:28:00,
2013-05-25 07:31:00,51.9,-10.5,30.28,SSW,193,0.0,0.0,7,0.00,CLR,,0.00,WeatherDisplay:10.37,2013-05-25 11:31:00,
2013-05-25 07:32:00,52.0,-10.4,30.29,SSW,193,0.0,0.0,7,0.00,CLR,,0.00,WeatherDisplay:10.37,2013-05-25 11:32:00,
2013-05-25 07:33:00,51.7,-10.6,30.29,SSW,193,0.0,0.0,7,0.00,CLR,,0.00,WeatherDisplay:10.37,2013-05-25 11:33:00,
2013-05-25 07:36:00,50.9,-8.5,30.29,West,263,0.0,4.6,8,0.00,CLR,,0.00,WeatherDisplay:10.37,2013-05-25 11:36:00,
2013-05-25 07:37:00,52.1,-7.6,30.29,West,263,0.0,0.0,8,0.00,CLR,,0.00,WeatherDisplay:10.37,2013-05-25 11:37:00,
2013-05-25 07:38:00,51.2,-3.6,30.29,West,263,0.0,0.0,10,0.00,CLR,,0.00,WeatherDisplay:10.37,2013-05-25 11:38:00,
2013-05-25 07:41:00,50.8,-6.1,30.29,West,263,0.0,0.0,9,0.00,CLR,,0.00,WeatherDisplay:10.37,2013-05-25 11:41:00,
2013-05-25 07:42:00,50.7,-4.0,30.29,West,263,0.0,0.0,10,0.00,CLR,,0.00,WeatherDisplay:10.37,2013-05-25 11:42:00,
2013-05-25 07:43:00,50.7,-4.0,30.29,West,263,0.0,0.0,10,0.00,CLR,,0.00,WeatherDisplay:10.37,2013-05-25 11:43:00,
2013-05-25 07:46:00,50.3,-0.5,30.29,NW,315,0.0,2.3,12,0.00,CLR,,0.00,WeatherDisplay:10.37,2013-05-25 11:46:00,
2013-05-25 07:47:00,50.3,-4.3,30.29,NW,315,0.0,0.0,10,0.00,CLR,,0.00,WeatherDisplay:10.37,2013-05-25 11:47:00,
2013-05-25 07:48:00,50.2,-6.6,30.29,NW,315,0.0,0.0,9,0.00,CLR,,0.00,WeatherDisplay:10.37,2013-05-25 11:48:00,
2013-05-25 07:51:00,50.3,-8.9,30.29,NW,315,0.0,0.0,8,0.00,CLR,,0.00,WeatherDisplay:10.37,2013-05-25 11:51:00,
2013-05-25 07:52:00,50.1,-11.8,30.29,NW,315,0.0,0.0,7,0.00,CLR,,0.00,WeatherDisplay:10.37,2013-05-25 11:52:00,
2013-05-25 07:53:00,50.4,-11.6,30.29,NW,315,0.0,0.0,7,0.00,CLR,,0.00,WeatherDisplay:10.37,2013-05-25 11:53:00,
2013-05-25 07:56:00,50.3,-8.9,30.28,NNW,343,2.3,5.8,8,0.00,CLR,,0.00,WeatherDisplay:10.37,2013-05-25 11:56:00,
2013-05-25 07:57:00,50.3,-6.5,30.28,NNW,343,0.5,5.8,9,0.00,CLR,,0.00,WeatherDisplay:10.37,2013-05-25 11:57:00,
2013-05-25 07:58:00,50.2,-11.7,30.28,NNW,343,0.0,0.0,7,0.00,CLR,,0.00,WeatherDisplay:10.37,2013-05-25 11:58:00,
2013-05-25 08:01:00,50.3,-11.6,30.28,NNW,330,1.3,8.1,7,0.00,CLR,,0.00,WeatherDisplay:10.37,2013-05-25 12:01:00,
2013-05-25 08:02:00,50.2,-11.7,30.28,NW,306,2.0,8.1,7,0.00,CLR,,0.00,WeatherDisplay:10.37,2013-05-25 12:02:00,
2013-05-25 08:03:00,50.1,-11.8,30.28,WNW,301,0.0,6.9,7,0.00,CLR,,0.00,WeatherDisplay:10.37,2013-05-25 12:03:00,
2013-05-25 08:04:00,50.4,-8.9,30.28,WNW,301,0.0,0.0,8,0.00,CLR,,0.00,WeatherDisplay:10.37,2013-05-25 12:04:00,
2013-05-25 08:07:00,50.4,-11.6,30.28,WNW,302,0.5,6.9,7,0.00,CLR,,0.00,WeatherDisplay:10.37,2013-05-25 12:07:00,
2013-05-25 08:08:00,50.1,-14.9,30.28,WNW,302,0.0,0.0,6,0.00,CLR,,0.00,WeatherDisplay:10.37,2013-05-25 12:08:00,
2013-05-25 08:09:00,50.3,-11.6,30.28,WNW,302,0.0,0.0,7,0.00,CLR,,0.00,WeatherDisplay:10.37,2013-05-25 12:09:00,
2013-05-25 08:12:00,50.3,-8.9,30.28,West,278,0.4,4.6,8,0.00,CLR,,0.00,WeatherDisplay:10.37,2013-05-25 12:12:00,
2013-05-25 08:14:00,50.4,-6.4,30.29,West,278,0.0,0.0,9,0.00,CLR,,0.00,WeatherDisplay:10.37,2013-05-25 12:14:00,
2013-05-25 08:17:00,50.5,-8.8,30.29,West,277,2.3,5.8,8,0.00,CLR,,0.00,WeatherDisplay:10.37,2013-05-25 12:17:00,
2013-05-25 08:19:00,50.1,-11.8,30.29,WNW,284,5.1,11.2,7,0.00,CLR,,0.00,WeatherDisplay:10.37,2013-05-25 12:19:00,
2013-05-25 08:22:00,50.2,-6.6,30.29,WNW,284,1.6,5.8,9,0.00,CLR,,0.00,WeatherDisplay:10.37,2013-05-25 12:22:00,
2013-05-25 08:23:00,50.0,-11.9,30.29,NNW,335,1.8,5.5,7,0.00,CLR,,0.00,WeatherDisplay:10.37,2013-05-25 12:23:00,
2013-05-25 08:24:00,49.9,-11.9,30.29,NW,312,5.3,8.1,7,0.00,CLR,,0.00,WeatherDisplay:10.37,2013-05-25 12:24:00,
2013-05-25 08:25:00,49.9,-11.9,30.29,NW,316,3.6,8.1,7,0.00,CLR,,0.00,WeatherDisplay:10.37,2013-05-25 12:25:00,
2013-05-25 08:27:00,50.2,-11.7,30.29,NW,312,5.0,6.9,7,0.00,CLR,,0.00,WeatherDisplay:10.37,2013-05-25 12:27:00,
2013-05-25 08:28:00,50.1,-11.8,30.29,North,357,3.5,8.1,7,0.00,CLR,,0.00,WeatherDisplay:10.37,2013-05-25 12:28:00,
2013-05-25 08:29:00,50.1,-11.8,30.29,NW,323,4.4,6.9,7,0.00,CLR,,0.00,WeatherDisplay:10.37,2013-05-25 12:29:00,
2013-05-25 08:30:00,50.1,-11.8,30.29,North,359,1.9,4.6,7,0.00,CLR,,0.00,WeatherDisplay:10.37,2013-05-25 12:30:00,
2013-05-25 08:32:00,50.2,-11.7,30.29,North,359,0.0,0.0,7,0.00,CLR,,0.00,WeatherDisplay:10.37,2013-05-25 12:32:00,
2013-05-25 08:33:00,50.2,-11.7,30.29,North,359,0.0,0.0,7,0.00,CLR,,0.00,WeatherDisplay:10.37,2013-05-25 12:33:00,
2013-05-25 08:34:00,50.4,-11.6,30.29,NW,311,3.7,7.6,7,0.00,CLR,,0.00,WeatherDisplay:10.37,2013-05-25 12:34:00,
2013-05-25 08:35:00,50.6,-11.4,30.29,NNW,328,5.4,8.1,7,0.00,CLR,,0.00,WeatherDisplay:10.37,2013-05-25 12:35:00,
2013-05-25 08:37:00,50.2,-4.4,30.29,NNE,16,0.0,4.6,10,0.00,CLR,,0.00,WeatherDisplay:10.37,2013-05-25 12:37:00,
2013-05-25 08:38:00,50.3,-6.5,30.29,NNE,16,0.0,0.0,9,0.00,CLR,,0.00,WeatherDisplay:10.37,2013-05-25 12:38:00,
2013-05-25 08:39:00,50.8,-14.4,30.29,NNE,16,0.0,0.0,6,0.00,CLR,,0.00,WeatherDisplay:10.37,2013-05-25 12:39:00,
2013-05-25 08:40:00,50.1,-14.9,30.29,NNW,340,4.1,9.2,6,0.00,CLR,,0.00,WeatherDisplay:10.37,2013-05-25 12:40:00,
2013-05-25 08:42:00,50.4,-11.6,30.29,North,359,3.9,5.8,7,0.00,CLR,,0.00,WeatherDisplay:10.37,2013-05-25 12:42:00,
2013-05-25 08:43:00,50.4,-8.9,30.29,North,359,2.6,6.9,8,0.00,CLR,,0.00,WeatherDisplay:10.37,2013-05-25 12:43:00,
2013-05-25 08:44:00,51.1,-8.3,30.29,WNW,295,0.9,7.6,8,0.00,CLR,,0.00,WeatherDisplay:10.37,2013-05-25 12:44:00,
2013-05-25 08:45:00,51.4,-10.8,30.29,NW,318,5.0,8.1,7,0.00,CLR,,0.00,WeatherDisplay:10.37,2013-05-25 12:45:00,
2013-05-25 08:47:00,51.1,-5.9,30.29,NNW,332,0.0,4.6,9,0.00,CLR,,0.00,WeatherDisplay:10.37,2013-05-25 12:47:00,
2013-05-25 08:48:00,51.0,-14.2,30.29,NNW,332,0.0,0.0,6,0.00,CLR,,0.00,WeatherDisplay:10.37,2013-05-25 12:48:00,
2013-05-25 08:49:00,51.0,-14.2,30.29,WNW,282,1.0,6.4,6,0.00,CLR,,0.00,WeatherDisplay:10.37,2013-05-25 12:49:00,
2013-05-25 08:50:00,50.7,-11.3,30.29,NNW,329,2.9,6.9,7,0.00,CLR,,0.00,WeatherDisplay:10.37,2013-05-25 12:50:00,
2013-05-25 08:52:00,51.1,-14.1,30.29,WNW,302,3.5,6.9,6,0.00,CLR,,0.00,WeatherDisplay:10.37,2013-05-25 12:52:00,
2013-05-25 08:53:00,51.2,-14.1,30.29,NW,318,1.4,5.8,6,0.00,CLR,,0.00,WeatherDisplay:10.37,2013-05-25 12:53:00,
2013-05-25 08:54:00,50.9,-14.3,30.29,NW,318,0.0,4.6,6,0.00,CLR,,0.00,WeatherDisplay:10.37,2013-05-25 12:54:00,
2013-05-25 08:55:00,50.8,-14.4,30.29,NW,312,2.7,8.1,6,0.00,CLR,,0.00,WeatherDisplay:10.37,2013-05-25 12:55:00,
2013-05-25 08:57:00,51.6,-13.8,30.29,NW,306,5.5,6.9,6,0.00,CLR,,0.00,WeatherDisplay:10.37,2013-05-25 12:57:00,
2013-05-25 08:58:00,51.2,-11.0,30.29,NNW,339,0.4,4.6,7,0.00,CLR,,0.00,WeatherDisplay:10.37,2013-05-25 12:58:00,
2013-05-25 08:59:00,51.9,-13.5,30.29,NNW,339,0.5,4.6,6,0.00,CLR,,0.00,WeatherDisplay:10.37,2013-05-25 12:59:00,
2013-05-25 09:00:00,52.3,-13.3,30.29,NNW,339,0.0,3.5,6,0.00,CLR,,0.00,WeatherDisplay:10.37,2013-05-25 13:00:00,
2013-05-25 09:03:00,51.2,-11.0,30.29,NNW,339,0.0,0.0,7,0.00,CLR,,0.00,WeatherDisplay:10.37,2013-05-25 13:03:00,
2013-05-25 09:04:00,51.0,-11.1,30.29,NNW,339,0.0,0.0,7,0.00,CLR,,0.00,WeatherDisplay:10.37,2013-05-25 13:04:00,
2013-05-25 09:05:00,52.5,-10.0,30.29,SW,226,1.4,5.8,7,0.00,CLR,,0.00,WeatherDisplay:10.37,2013-05-25 13:05:00,
2013-05-25 09:06:00,51.1,-14.1,30.29,SSW,202,2.1,6.9,6,0.00,CLR,,0.00,WeatherDisplay:10.37,2013-05-25 13:06:00,
2013-05-25 09:08:00,52.1,-13.4,30.29,West,260,0.0,0.0,6,0.00,CLR,,0.00,WeatherDisplay:10.37,2013-05-25 13:08:00,
2013-05-25 09:09:00,52.4,-13.2,30.29,WNW,289,4.6,6.9,6,0.00,CLR,,0.00,WeatherDisplay:10.37,2013-05-25 13:09:00,
2013-05-25 09:11:00,52.8,-12.9,30.29,West,270,5.2,9.2,6,0.00,CLR,,0.00,WeatherDisplay:10.37,2013-05-25 13:11:00,
2013-05-25 09:13:00,52.3,-13.3,30.29,WSW,254,0.9,6.4,6,0.00,CLR,,0.00,WeatherDisplay:10.37,2013-05-25 13:13:00,
2013-05-25 09:14:00,52.0,-13.5,30.29,WNW,292,4.1,6.9,6,0.00,CLR,,0.00,WeatherDisplay:10.37,2013-05-25 13:14:00,
2013-05-25 09:15:00,52.4,-13.2,30.29,NW,311,2.9,6.9,6,0.00,CLR,,0.00,WeatherDisplay:10.37,2013-05-25 13:15:00,
2013-05-25 09:16:00,51.6,-10.7,30.29,NW,311,0.9,4.6,7,0.00,CLR,,0.00,WeatherDisplay:10.37,2013-05-25 13:16:00,
2013-05-25 09:18:00,53.7,-9.1,30.29,NW,311,0.0,0.0,7,0.00,CLR,,0.00,WeatherDisplay:10.37,2013-05-25 13:18:00,
2013-05-25 09:19:00,53.6,-15.9,30.29,WNW,301,4.2,6.9,5,0.00,CLR,,0.00,WeatherDisplay:10.37,2013-05-25 13:19:00,
2013-05-25 09:20:00,52.7,-16.6,30.29,SW,233,1.3,5.8,5,0.00,CLR,,0.00,WeatherDisplay:10.37,2013-05-25 13:20:00,
2013-05-25 09:21:00,53.2,-16.2,30.29,WNW,288,4.8,5.8,5,0.00,CLR,,0.00,WeatherDisplay:10.37,2013-05-25 13:21:00,
2013-05-25 09:23:00,53.4,-12.4,30.29,West,272,1.5,3.5,6,0.00,CLR,,0.00,WeatherDisplay:10.37,2013-05-25 13:23:00,
2013-05-25 09:24:00,52.8,-12.9,30.29,NW,323,2.0,7.5,6,0.00,CLR,,0.00,WeatherDisplay:10.37,2013-05-25 13:24:00,
2013-05-25 09:25:00,52.2,-16.9,30.29,WSW,239,8.1,10.4,5,0.00,CLR,,0.00,WeatherDisplay:10.37,2013-05-25 13:25:00,
2013-05-25 09:27:00,52.7,-13.0,30.29,West,280,5.2,9.2,6,0.00,CLR,,0.00,WeatherDisplay:10.37,2013-05-25 13:27:00,
2013-05-25 09:28:00,53.0,-12.7,30.29,West,280,0.0,4.6,6,0.00,CLR,,0.00,WeatherDisplay:10.37,2013-05-25 13:28:00,
2013-05-25 09:29:00,52.8,-16.5,30.29,NNW,340,3.8,5.1,5,0.00,CLR,,0.00,WeatherDisplay:10.37,2013-05-25 13:29:00,
2013-05-25 09:31:00,53.3,-12.5,30.29,NW,316,4.7,6.9,6,0.00,CLR,,0.00,WeatherDisplay:10.37,2013-05-25 13:31:00,
2013-05-25 09:32:00,52.1,-13.4,30.29,NW,313,2.8,5.8,6,0.00,CLR,,0.00,WeatherDisplay:10.37,2013-05-25 13:32:00,
2013-05-25 09:33:00,53.7,-12.2,30.29,NW,313,0.0,4.6,6,0.00,CLR,,0.00,WeatherDisplay:10.37,2013-05-25 13:33:00,
2013-05-25 09:34:00,53.1,-12.7,30.29,NW,313,0.0,0.0,6,0.00,CLR,,0.00,WeatherDisplay:10.37,2013-05-25 13:34:00,
2013-05-25 09:36:00,52.7,-16.6,30.29,WNW,292,4.5,6.9,5,0.00,CLR,,0.00,WeatherDisplay:10.37,2013-05-25 13:36:00,
2013-05-25 09:37:00,53.8,-12.2,30.28,WNW,292,0.0,4.6,6,0.00,CLR,,0.00,WeatherDisplay:10.37,2013-05-25 13:37:00,
2013-05-25 09:38:00,54.3,-11.8,30.28,North,360,1.5,0.0,6,0.00,CLR,,0.00,WeatherDisplay:10.37,2013-05-25 13:38:00,
2013-05-25 09:39:00,54.1,-15.6,30.28,North,360,0.0,5.8,5,0.00,CLR,,0.00,WeatherDisplay:10.37,2013-05-25 13:39:00,
2013-05-25 09:41:00,55.6,-10.8,30.28,North,360,0.0,0.0,6,0.00,CLR,,0.00,WeatherDisplay:10.37,2013-05-25 13:41:00,
2013-05-25 09:42:00,56.4,-13.9,30.28,North,360,1.7,0.0,5,0.00,CLR,,0.00,WeatherDisplay:10.37,2013-05-25 13:42:00,
2013-05-25 09:43:00,57.0,-13.5,30.28,North,360,1.7,6.9,5,0.00,CLR,,0.00,WeatherDisplay:10.37,2013-05-25 13:43:00,
2013-05-25 09:44:00,57.6,-13.0,30.28,SSW,196,1.5,5.8,5,0.00,CLR,,0.00,WeatherDisplay:10.37,2013-05-25 13:44:00,
2013-05-25 09:46:00,56.2,-14.1,30.28,NW,311,1.2,11.5,5,0.00,CLR,,0.00,WeatherDisplay:10.37,2013-05-25 13:46:00,
2013-05-25 09:47:00,56.0,-14.2,30.28,WNW,295,4.8,5.7,5,0.00,CLR,,0.00,WeatherDisplay:10.37,2013-05-25 13:47:00,
2013-05-25 09:48:00,55.3,-14.7,30.28,WSW,254,6.0,10.8,5,0.00,CLR,,0.00,WeatherDisplay:10.37,2013-05-25 13:48:00,
2013-05-25 09:49:00,54.9,-15.0,30.28,WSW,257,7.6,12.7,5,0.00,CLR,,0.00,WeatherDisplay:10.37,2013-05-25 13:49:00,
2013-05-25 09:51:00,55.5,-14.6,30.28,NW,315,3.0,9.2,5,0.00,CLR,,0.00,WeatherDisplay:10.37,2013-05-25 13:51:00,
2013-05-25 09:52:00,54.5,-15.3,30.28,WNW,288,6.3,10.4,5,0.00,CLR,,0.00,WeatherDisplay:10.37,2013-05-25 13:52:00,
2013-05-25 09:53:00,54.0,-15.6,30.28,SSW,205,6.8,10.5,5,0.00,CLR,,0.00,WeatherDisplay:10.37,2013-05-25 13:53:00,
2013-05-25 09:54:00,54.5,-15.3,30.28,SW,223,7.6,10.4,5,0.00,CLR,,0.00,WeatherDisplay:10.37,2013-05-25 13:54:00,
2013-05-25 09:56:00,54.6,-15.2,30.28,NW,320,0.0,8.1,5,0.00,CLR,,0.00,WeatherDisplay:10.37,2013-05-25 13:56:00,
2013-05-25 09:57:00,55.2,-14.8,30.28,NW,318,6.4,8.1,5,0.00,CLR,,0.00,WeatherDisplay:10.37,2013-05-25 13:57:00,
2013-05-25 09:59:00,54.1,-15.6,30.28,NW,304,5.9,9.2,5,0.00,CLR,,0.00,WeatherDisplay:10.37,2013-05-25 13:59:00,
2013-05-25 10:01:00,55.1,-14.8,30.28,WSW,253,6.2,9.2,5,0.00,CLR,,0.00,WeatherDisplay:10.37,2013-05-25 14:01:00,
2013-05-25 10:02:00,55.0,-11.3,30.28,NW,323,7.2,13.8,6,0.00,CLR,,0.00,WeatherDisplay:10.37,2013-05-25 14:02:00,
2013-05-25 10:04:00,54.8,-15.1,30.28,SW,227,5.2,11.5,5,0.00,CLR,,0.00,WeatherDisplay:10.37,2013-05-25 14:04:00,
2013-05-25 10:06:00,57.2,-13.3,30.28,West,281,4.3,11.5,5,0.00,CLR,,0.00,WeatherDisplay:10.37,2013-05-25 14:06:00,
2013-05-25 10:07:00,55.4,-14.6,30.28,NW,304,6.5,9.2,5,0.00,CLR,,0.00,WeatherDisplay:10.37,2013-05-25 14:07:00,
2013-05-25 10:09:00,55.6,-10.8,30.28,West,261,6.8,10.4,6,0.00,CLR,,0.00,WeatherDisplay:10.37,2013-05-25 14:09:00,
2013-05-25 10:11:00,56.4,-13.9,30.28,WNW,292,7.2,12.2,5,0.00,CLR,,0.00,WeatherDisplay:10.37,2013-05-25 14:11:00,
2013-05-25 10:13:00,56.0,-14.2,30.28,NW,323,6.9,10.4,5,0.00,CLR,,0.00,WeatherDisplay:10.37,2013-05-25 14:13:00,
2013-05-25 10:14:00,56.2,-14.1,30.28,WNW,301,9.7,9.7,5,0.00,CLR,,0.00,WeatherDisplay:10.37,2013-05-25 14:14:00,
2013-05-25 10:15:00,55.9,-14.3,30.28,WNW,294,9.0,15.0,5,0.00,CLR,,0.00,WeatherDisplay:10.37,2013-05-25 14:15:00,
2013-05-25 10:16:00,55.2,-11.1,30.28,NNW,340,7.4,10.4,6,0.00,CLR,,0.00,WeatherDisplay:10.37,2013-05-25 14:16:00,
2013-05-25 10:18:00,56.9,-13.6,30.28,West,281,2.3,6.9,5,0.00,CLR,,0.00,WeatherDisplay:10.37,2013-05-25 14:18:00,
2013-05-25 10:19:00,56.5,-10.2,30.28,West,274,6.2,8.1,6,0.00,CLR,,0.00,WeatherDisplay:10.37,2013-05-25 14:19:00,
2013-05-25 10:20:00,58.6,-12.3,30.28,West,264,2.6,12.7,5,0.00,CLR,,0.00,WeatherDisplay:10.37,2013-05-25 14:20:00,
2013-05-25 10:21:00,58.6,-16.8,30.28,West,272,3.3,12.7,4,0.00,CLR,,0.00,WeatherDisplay:10.37,2013-05-25 14:21:00,
2013-05-25 10:24:00,58.5,-12.4,30.28,WNW,285,4.2,11.5,5,0.00,CLR,,0.00,WeatherDisplay:10.37,2013-05-25 14:24:00,
2013-05-25 10:25:00,59.3,-11.8,30.28,NNW,344,4.7,8.1,5,0.00,CLR,,0.00,WeatherDisplay:10.37,2013-05-25 14:25:00,
2013-05-25 10:26:00,58.9,-8.4,30.28,NNW,340,2.8,9.2,6,0.00,CLR,,0.00,WeatherDisplay:10.37,2013-05-25 14:26:00,
2013-05-25 10:30:00,58.9,-12.1,30.28,NNW,329,8.8,12.7,5,0.00,CLR,,0.00,WeatherDisplay:10.37,2013-05-25 14:30:00,
2013-05-25 10:31:00,59.4,-11.8,30.28,NW,312,5.6,12.8,5,0.00,CLR,,0.00,WeatherDisplay:10.37,2013-05-25 14:31:00,
2013-05-25 10:35:00,58.8,-16.6,30.28,WSW,256,7.1,11.5,4,0.00,CLR,,0.00,WeatherDisplay:10.37,2013-05-25 14:35:00,
2013-05-25 10:37:00,58.6,-12.3,30.28,NNE,20,10.3,15.0,5,0.00,CLR,,0.00,WeatherDisplay:10.37,2013-05-25 14:37:00,
2013-05-25 10:40:00,57.1,-9.7,30.28,West,281,7.9,17.3,6,0.00,CLR,,0.00,WeatherDisplay:10.37,2013-05-25 14:40:00,
2013-05-25 10:42:00,58.1,-12.7,30.28,NW,325,9.8,16.1,5,0.00,CLR,,0.00,WeatherDisplay:10.37,2013-05-25 14:42:00,
2013-05-25 10:45:00,58.8,-12.2,30.29,North,359,9.8,17.3,5,0.00,CLR,,0.00,WeatherDisplay:10.37,2013-05-25 14:45:00,
2013-05-25 10:46:00,59.3,-16.3,30.29,WNW,284,10.0,13.6,4,0.00,CLR,,0.00,WeatherDisplay:10.37,2013-05-25 14:46:00,
2013-05-25 10:47:00,59.7,-11.5,30.29,NNW,342,6.7,16.9,5,0.00,CLR,,0.00,WeatherDisplay:10.37,2013-05-25 14:47:00,
2013-05-25 10:50:00,59.3,-11.8,30.29,NW,316,8.3,13.8,5,0.00,CLR,,0.00,WeatherDisplay:10.37,2013-05-25 14:50:00,
2013-05-25 10:51:00,58.2,-12.6,30.29,WNW,285,12.1,20.7,5,0.00,CLR,,0.00,WeatherDisplay:10.37,2013-05-25 14:51:00,
2013-05-25 10:52:00,59.5,-11.7,30.29,NW,320,8.3,17.3,5,0.00,CLR,,0.00,WeatherDisplay:10.37,2013-05-25 14:52:00,
2013-05-25 10:55:00,60.5,-11.0,30.28,NNW,332,5.8,10.4,5,0.00,CLR,,0.00,WeatherDisplay:10.37,2013-05-25 14:55:00,
2013-05-25 10:56:00,60.0,-11.3,30.28,NW,315,7.2,9.2,5,0.00,CLR,,0.00,WeatherDisplay:10.37,2013-05-25 14:56:00,
2013-05-25 10:57:00,60.4,-11.0,30.28,West,261,8.5,16.1,5,0.00,CLR,,0.00,WeatherDisplay:10.37,2013-05-25 14:57:00,
2013-05-25 11:00:00,60.9,-7.0,30.29,NNW,344,7.8,12.7,6,0.00,CLR,,0.00,WeatherDisplay:10.37,2013-05-25 15:00:00,
2013-05-25 11:01:00,60.7,-10.8,30.29,NW,312,8.5,15.0,5,0.00,CLR,,0.00,WeatherDisplay:10.37,2013-05-25 15:01:00,
2013-05-25 11:02:00,61.6,-6.4,30.29,North,352,9.2,13.8,6,0.00,CLR,,0.00,WeatherDisplay:10.37,2013-05-25 15:02:00,
2013-05-25 11:05:00,60.9,-15.1,30.28,NNW,332,8.9,12.7,4,0.00,CLR,,0.00,WeatherDisplay:10.37,2013-05-25 15:05:00,
2013-05-25 11:06:00,60.4,-15.5,30.28,NW,325,9.1,12.7,4,0.00,CLR,,0.00,WeatherDisplay:10.37,2013-05-25 15:06:00,
2013-05-25 11:07:00,60.8,-10.8,30.28,NW,308,6.8,10.4,5,0.00,CLR,,0.00,WeatherDisplay:10.37,2013-05-25 15:07:00,
2013-05-25 11:10:00,61.7,-10.1,30.28,NW,308,6.9,10.4,5,0.00,CLR,,0.00,WeatherDisplay:10.37,2013-05-25 15:10:00,
2013-05-25 11:11:00,61.5,-14.7,30.28,NW,311,7.8,18.5,4,0.00,CLR,,0.00,WeatherDisplay:10.37,2013-05-25 15:11:00,
2013-05-25 11:13:00,61.2,-14.9,30.28,North,360,8.3,17.3,4,0.00,CLR,,0.00,WeatherDisplay:10.37,2013-05-25 15:13:00,
2013-05-25 11:15:00,61.5,-10.3,30.28,NW,326,8.3,13.6,5,0.00,CLR,,0.00,WeatherDisplay:10.37,2013-05-25 15:15:00,
2013-05-25 11:16:00,61.1,-15.0,30.28,NW,325,9.7,13.8,4,0.00,CLR,,0.00,WeatherDisplay:10.37,2013-05-25 15:16:00,
2013-05-25 11:18:00,61.3,-14.9,30.28,WNW,294,8.5,11.5,4,0.00,CLR,,0.00,WeatherDisplay:10.37,2013-05-25 15:18:00,
2013-05-25 11:20:00,61.7,-14.6,30.29,WNW,285,8.4,11.5,4,0.00,CLR,,0.00,WeatherDisplay:10.37,2013-05-25 15:20:00,
2013-05-25 11:21:00,61.5,-20.3,30.28,WNW,301,8.3,12.5,3,0.00,CLR,,0.00,WeatherDisplay:10.37,2013-05-25 15:21:00,
2013-05-25 11:22:00,61.2,-14.9,30.28,NW,320,11.1,13.8,4,0.00,CLR,,0.00,WeatherDisplay:10.37,2013-05-25 15:22:00,
2013-05-25 11:23:00,61.6,-14.7,30.28,NW,306,6.7,13.8,4,0.00,CLR,,0.00,WeatherDisplay:10.37,2013-05-25 15:23:00,
2013-05-25 11:25:00,61.7,-14.6,30.28,West,268,6.7,9.6,4,0.00,CLR,,0.00,WeatherDisplay:10.37,2013-05-25 15:25:00,
2013-05-25 11:26:00,62.8,-13.8,30.28,NW,305,7.8,9.2,4,0.00,CLR,,0.00,WeatherDisplay:10.37,2013-05-25 15:26:00,
2013-05-25 11:27:00,62.2,-14.2,30.28,NNW,335,11.3,15.0,4,0.00,CLR,,0.00,WeatherDisplay:10.37,2013-05-25 15:27:00,
2013-05-25 11:28:00,62.3,-14.2,30.28,NW,323,9.6,17.3,4,0.00,CLR,,0.00,WeatherDisplay:10.37,2013-05-25 15:28:00,
2013-05-25 11:30:00,62.2,-14.2,30.28,North,354,7.1,9.2,4,0.00,CLR,,0.00,WeatherDisplay:10.37,2013-05-25 15:30:00,
2013-05-25 11:31:00,61.9,-14.4,30.28,NW,318,6.3,10.4,4,0.00,CLR,,0.00,WeatherDisplay:10.37,2013-05-25 15:31:00,
2013-05-25 11:32:00,62.6,-14.0,30.28,West,267,6.9,10.9,4,0.00,CLR,,0.00,WeatherDisplay:10.37,2013-05-25 15:32:00,
2013-05-25 11:33:00,62.4,-14.1,30.28,NW,326,10.0,15.0,4,0.00,CLR,,0.00,WeatherDisplay:10.37,2013-05-25 15:33:00,
2013-05-25 11:35:00,62.0,-20.0,30.28,NW,323,11.9,13.8,3,0.00,CLR,,0.00,WeatherDisplay:10.37,2013-05-25 15:35:00,
2013-05-25 11:37:00,62.4,-14.1,30.27,WNW,299,10.1,17.3,4,0.00,CLR,,0.00,WeatherDisplay:10.37,2013-05-25 15:37:00,
2013-05-25 11:38:00,62.5,-19.7,30.28,North,354,11.2,12.7,3,0.00,CLR,,0.00,WeatherDisplay:10.37,2013-05-25 15:38:00,
2013-05-25 11:41:00,62.6,-14.0,30.28,NNE,20,7.8,12.7,4,0.00,CLR,,0.00,WeatherDisplay:10.37,2013-05-25 15:41:00,
2013-05-25 11:42:00,62.9,-19.4,30.28,NW,323,9.8,12.7,3,0.00,CLR,,0.00,WeatherDisplay:10.37,2013-05-25 15:42:00,
2013-05-25 11:43:00,62.1,-14.3,30.28,NNW,340,13.1,18.4,4,0.00,CLR,,0.00,WeatherDisplay:10.37,2013-05-25 15:43:00,
2013-05-25 11:46:00,63.3,-13.5,30.27,NW,311,7.6,15.0,4,0.00,CLR,,0.00,WeatherDisplay:10.37,2013-05-25 15:46:00,
2013-05-25 11:47:00,62.7,-19.5,30.27,NW,311,9.2,15.0,3,0.00,CLR,,0.00,WeatherDisplay:10.37,2013-05-25 15:47:00,
2013-05-25 11:48:00,63.3,-19.1,30.27,NNW,340,12.4,17.3,3,0.00,CLR,,0.00,WeatherDisplay:10.37,2013-05-25 15:48:00,
2013-05-25 11:51:00,63.9,-8.5,30.27,NW,308,8.3,15.0,5,0.00,CLR,,0.00,WeatherDisplay:10.37,2013-05-25 15:51:00,
2013-05-25 11:52:00,64.0,-13.0,30.28,SW,232,7.2,12.7,4,0.00,CLR,,0.00,WeatherDisplay:10.37,2013-05-25 15:52:00,
2013-05-25 11:53:00,64.1,-18.6,30.27,North,354,9.1,13.8,3,0.00,CLR,,0.00,WeatherDisplay:10.37,2013-05-25 15:53:00,
2013-05-25 11:57:00,63.1,-19.3,30.28,NNW,333,11.1,17.3,3,0.00,CLR,,0.00,WeatherDisplay:10.37,2013-05-25 15:57:00,
2013-05-25 11:58:00,62.7,-13.9,30.28,NW,305,12.1,20.7,4,0.00,CLR,,0.00,WeatherDisplay:10.37,2013-05-25 15:58:00,
2013-05-25 11:59:00,63.6,-13.3,30.28,NW,304,9.7,20.7,4,0.00,CLR,,0.00,WeatherDisplay:10.37,2013-05-25 15:59:00,
2013-05-25 12:02:00,64.0,-18.6,30.28,NW,311,10.2,18.4,3,0.00,CLR,,0.00,WeatherDisplay:10.37,2013-05-25 16:02:00,
2013-05-25 12:03:00,64.7,-18.2,30.28,NW,309,10.3,17.2,3,0.00,CLR,,0.00,WeatherDisplay:10.37,2013-05-25 16:03:00,
2013-05-25 12:04:00,64.3,-12.8,30.28,NW,325,11.1,18.5,4,0.00,CLR,,0.00,WeatherDisplay:10.37,2013-05-25 16:04:00,
2013-05-25 12:07:00,63.5,-13.3,30.27,West,277,9.1,15.0,4,0.00,CLR,,0.00,WeatherDisplay:10.37,2013-05-25 16:07:00,
2013-05-25 12:09:00,64.1,-18.6,30.27,WNW,282,11.1,18.4,3,0.00,CLR,,0.00,WeatherDisplay:10.37,2013-05-25 16:09:00,
2013-05-25 12:12:00,64.0,-13.0,30.27,WNW,287,8.3,18.4,4,0.00,CLR,,0.00,WeatherDisplay:10.37,2013-05-25 16:12:00,
2013-05-25 12:13:00,64.6,-12.6,30.27,North,352,8.2,16.0,4,0.00,CLR,,0.00,WeatherDisplay:10.37,2013-05-25 16:13:00,
2013-05-25 12:14:00,63.8,-18.8,30.27,NW,316,14.5,16.1,3,0.00,CLR,,0.00,WeatherDisplay:10.37,2013-05-25 16:14:00,
2013-05-25 12:15:00,63.5,-19.0,30.27,NW,323,12.3,19.6,3,0.00,CLR,,0.00,WeatherDisplay:10.37,2013-05-25 16:15:00,
2013-05-25 12:17:00,63.1,-19.3,30.27,North,359,13.7,20.7,3,0.00,CLR,,0.00,WeatherDisplay:10.37,2013-05-25 16:17:00,
2013-05-25 12:18:00,63.4,-13.4,30.27,NNE,17,12.0,17.3,4,0.00,CLR,,0.00,WeatherDisplay:10.37,2013-05-25 16:18:00,
2013-05-25 12:19:00,63.6,-13.3,30.27,WNW,299,10.3,19.6,4,0.00,CLR,,0.00,WeatherDisplay:10.37,2013-05-25 16:19:00,
2013-05-25 12:20:00,63.6,-13.3,30.27,NNW,344,11.4,19.6,4,0.00,CLR,,0.00,WeatherDisplay:10.37,2013-05-25 16:20:00,
2013-05-25 12:22:00,63.6,-13.3,30.27,NW,318,8.3,13.8,4,0.00,CLR,,0.00,WeatherDisplay:10.37,2013-05-25 16:22:00,
2013-05-25 12:23:00,64.1,-12.9,30.26,WNW,287,9.8,25.5,4,0.00,CLR,,0.00,WeatherDisplay:10.37,2013-05-25 16:23:00,
2013-05-25 12:25:00,63.1,-19.3,30.27,NW,308,12.2,25.3,3,0.00,CLR,,0.00,WeatherDisplay:10.37,2013-05-25 16:25:00,
2013-05-25 12:27:00,63.9,-13.0,30.26,NW,319,7.8,16.1,4,0.00,CLR,,0.00,WeatherDisplay:10.37,2013-05-25 16:27:00,
2013-05-25 12:28:00,63.6,-13.3,30.26,North,353,9.9,13.8,4,0.00,CLR,,0.00,WeatherDisplay:10.37,2013-05-25 16:28:00,
2013-05-25 12:29:00,63.4,-13.4,30.26,West,260,8.9,13.8,4,0.00,CLR,,0.00,WeatherDisplay:10.37,2013-05-25 16:29:00,
2013-05-25 12:30:00,63.7,-13.2,30.26,WNW,298,10.3,19.6,4,0.00,CLR,,0.00,WeatherDisplay:10.37,2013-05-25 16:30:00,
2013-05-25 12:32:00,64.0,-18.6,30.26,WNW,288,7.8,15.0,3,0.00,CLR,,0.00,WeatherDisplay:10.37,2013-05-25 16:32:00,
2013-05-25 12:33:00,63.7,-13.2,30.26,WNW,294,11.4,15.0,4,0.00,CLR,,0.00,WeatherDisplay:10.37,2013-05-25 16:33:00,
2013-05-25 12:34:00,63.7,-13.2,30.26,NW,311,9.6,15.0,4,0.00,CLR,,0.00,WeatherDisplay:10.37,2013-05-25 16:34:00,
2013-05-25 12:35:00,63.7,-13.2,30.26,NW,306,5.4,9.6,4,0.00,CLR,,0.00,WeatherDisplay:10.37,2013-05-25 16:35:00,
2013-05-25 12:37:00,64.1,-18.6,30.26,WNW,295,10.2,15.0,3,0.00,CLR,,0.00,WeatherDisplay:10.37,2013-05-25 16:37:00,
2013-05-25 12:38:00,64.1,-12.9,30.25,NW,316,8.9,16.1,4,0.00,CLR,,0.00,WeatherDisplay:10.37,2013-05-25 16:38:00,
2013-05-25 12:39:00,64.1,-12.9,30.26,North,357,8.8,12.7,4,0.00,CLR,,0.00,WeatherDisplay:10.37,2013-05-25 16:39:00,
2013-05-25 12:40:00,64.2,-12.8,30.25,West,268,9.2,16.1,4,0.00,CLR,,0.00,WeatherDisplay:10.37,2013-05-25 16:40:00,
2013-05-25 12:41:00,64.4,-12.7,30.25,WSW,253,6.7,10.4,4,0.00,CLR,,0.00,WeatherDisplay:10.37,2013-05-25 16:41:00,
2013-05-25 12:42:00,64.8,-12.4,30.26,WNW,299,7.3,15.0,4,0.00,CLR,,0.00,WeatherDisplay:10.37,2013-05-25 16:42:00,
2013-05-25 12:43:00,65.0,-7.7,30.25,WNW,291,6.8,12.7,5,0.00,CLR,,0.00,WeatherDisplay:10.37,2013-05-25 16:43:00,
2013-05-25 12:44:00,64.3,-12.8,30.25,NW,309,11.3,16.1,4,0.00,CLR,,0.00,WeatherDisplay:10.37,2013-05-25 16:44:00,
2013-05-25 12:45:00,64.8,-12.4,30.25,NNW,340,7.6,15.0,4,0.00,CLR,,0.00,WeatherDisplay:10.37,2013-05-25 16:45:00,
2013-05-25 12:46:00,65.2,-12.1,30.25,West,274,4.8,6.9,4,0.00,CLR,,0.00,WeatherDisplay:10.37,2013-05-25 16:46:00,
2013-05-25 12:47:00,65.6,-7.3,30.25,WNW,289,8.2,9.2,5,0.00,CLR,,0.00,WeatherDisplay:10.37,2013-05-25 16:47:00,
2013-05-25 12:48:00,65.6,-11.9,30.25,WSW,243,7.3,18.4,4,0.00,CLR,,0.00,WeatherDisplay:10.37,2013-05-25 16:48:00,
2013-05-25 12:49:00,65.3,-12.1,30.25,North,354,8.9,18.8,4,0.00,CLR,,0.00,WeatherDisplay:10.37,2013-05-25 16:49:00,
2013-05-25 12:50:00,64.8,-12.4,30.25,NNW,333,13.5,24.2,4,0.00,CLR,,0.00,WeatherDisplay:10.37,2013-05-25 16:50:00,
2013-05-25 12:51:00,64.9,-12.3,30.25,NW,305,11.9,20.7,4,0.00,CLR,,0.00,WeatherDisplay:10.37,2013-05-25 16:51:00,
2013-05-25 12:53:00,64.8,-7.9,30.25,WNW,284,9.7,15.0,5,0.00,CLR,,0.00,WeatherDisplay:10.37,2013-05-25 16:53:00,
2013-05-25 12:54:00,64.4,-12.7,30.25,NW,322,13.1,16.1,4,0.00,CLR,,0.00,WeatherDisplay:10.37,2013-05-25 16:54:00,
2013-05-25 12:55:00,64.8,-12.4,30.25,NNW,333,10.6,20.9,4,0.00,CLR,,0.00,WeatherDisplay:10.37,2013-05-25 16:55:00,
2013-05-25 12:56:00,64.9,-12.3,30.25,WNW,301,8.1,17.3,4,0.00,CLR,,0.00,WeatherDisplay:10.37,2013-05-25 16:56:00,
2013-05-25 12:58:00,64.7,-18.2,30.25,WSW,251,10.2,11.4,3,0.00,CLR,,0.00,WeatherDisplay:10.37,2013-05-25 16:58:00,
2013-05-25 12:59:00,65.2,-12.1,30.25,WSW,253,9.9,19.6,4,0.00,CLR,,0.00,WeatherDisplay:10.37,2013-05-25 16:59:00,
2013-05-25 13:00:00,65.1,-12.2,30.25,NW,320,7.0,19.6,4,0.00,CLR,,0.00,WeatherDisplay:10.37,2013-05-25 17:00:00,
2013-05-25 13:01:00,65.4,-12.0,30.25,WNW,289,10.5,16.3,4,0.00,CLR,,0.00,WeatherDisplay:10.37,2013-05-25 17:01:00,
2013-05-25 13:02:00,65.2,-17.8,30.25,NW,312,11.4,15.0,3,0.00,CLR,,0.00,WeatherDisplay:10.37,2013-05-25 17:02:00,
2013-05-25 13:03:00,64.6,-18.2,30.25,NW,309,10.2,17.4,3,0.00,CLR,,0.00,WeatherDisplay:10.37,2013-05-25 17:03:00,
2013-05-25 13:05:00,64.7,-12.5,30.25,WSW,254,13.4,21.9,4,0.00,CLR,,0.00,WeatherDisplay:10.37,2013-05-25 17:05:00,
2013-05-25 13:06:00,64.6,-12.6,30.25,NW,326,11.8,21.9,4,0.00,CLR,,0.00,WeatherDisplay:10.37,2013-05-25 17:06:00,
2013-05-25 13:07:00,64.6,-12.6,30.25,NW,318,11.9,21.9,4,0.00,CLR,,0.00,WeatherDisplay:10.37,2013-05-25 17:07:00,
2013-05-25 13:08:00,64.4,-12.7,30.25,WNW,301,12.6,23.0,4,0.00,CLR,,0.00,WeatherDisplay:10.37,2013-05-25 17:08:00,
2013-05-25 13:10:00,63.9,-13.0,30.25,NW,311,15.7,25.3,4,0.00,CLR,,0.00,WeatherDisplay:10.37,2013-05-25 17:10:00,
2013-05-25 13:11:00,63.9,-13.0,30.25,NW,318,12.0,25.3,4,0.00,CLR,,0.00,WeatherDisplay:10.37,2013-05-25 17:11:00,
2013-05-25 13:12:00,64.3,-12.8,30.25,West,278,11.2,19.6,4,0.00,CLR,,0.00,WeatherDisplay:10.37,2013-05-25 17:12:00,
2013-05-25 13:13:00,64.8,-12.4,30.25,West,268,11.6,17.3,4,0.00,CLR,,0.00,WeatherDisplay:10.37,2013-05-25 17:13:00,
2013-05-25 13:15:00,64.6,-12.6,30.25,NNW,342,11.0,24.2,4,0.00,CLR,,0.00,WeatherDisplay:10.37,2013-05-25 17:15:00,
2013-05-25 13:16:00,64.1,-12.9,30.25,North,357,10.8,24.2,4,0.00,CLR,,0.00,WeatherDisplay:10.37,2013-05-25 17:16:00,
2013-05-25 13:17:00,64.8,-7.9,30.25,NW,325,10.8,17.2,5,0.00,CLR,,0.00,WeatherDisplay:10.37,2013-05-25 17:17:00,
2013-05-25 13:18:00,64.6,-18.2,30.25,WNW,291,12.5,17.3,3,0.00,CLR,,0.00,WeatherDisplay:10.37,2013-05-25 17:18:00,
2013-05-25 13:21:00,65.0,-12.3,30.24,North,360,10.4,15.0,4,0.00,CLR,,0.00,WeatherDisplay:10.37,2013-05-25 17:21:00,
2013-05-25 13:22:00,65.1,-12.2,30.24,SSW,202,9.5,16.1,4,0.00,CLR,,0.00,WeatherDisplay:10.37,2013-05-25 17:22:00,
2013-05-25 13:23:00,65.1,-17.9,30.24,WSW,241,13.3,25.3,3,0.00,CLR,,0.00,WeatherDisplay:10.37,2013-05-25 17:23:00,
2013-05-25 13:26:00,64.3,-18.4,30.24,West,270,14.0,19.6,3,0.00,CLR,,0.00,WeatherDisplay:10.37,2013-05-25 17:26:00,
2013-05-25 13:27:00,64.2,-12.8,30.24,WNW,294,14.8,24.2,4,0.00,CLR,,0.00,WeatherDisplay:10.37,2013-05-25 17:27:00,
2013-05-25 13:29:00,65.2,-17.8,30.24,NNW,343,10.9,18.4,3,0.00,CLR,,0.00,WeatherDisplay:10.37,2013-05-25 17:29:00,
2013-05-25 13:31:00,65.1,-17.9,30.24,WNW,299,12.6,20.7,3,0.00,CLR,,0.00,WeatherDisplay:10.37,2013-05-25 17:31:00,
2013-05-25 13:32:00,64.1,-18.6,30.24,WNW,296,14.4,20.7,3,0.00,CLR,,0.00,WeatherDisplay:10.37,2013-05-25 17:32:00,
2013-05-25 13:34:00,65.0,-12.3,30.24,West,275,10.5,14.0,4,0.00,CLR,,0.00,WeatherDisplay:10.37,2013-05-25 17:34:00,
2013-05-25 13:36:00,65.4,-12.0,30.24,WNW,295,12.4,20.7,4,0.00,CLR,,0.00,WeatherDisplay:10.37,2013-05-25 17:36:00,
2013-05-25 13:37:00,65.2,-17.8,30.24,NW,313,10.9,20.7,3,0.00,CLR,,0.00,WeatherDisplay:10.37,2013-05-25 17:37:00,
2013-05-25 13:39:00,65.3,-12.1,30.23,North,1,7.8,12.7,4,0.00,CLR,,0.00,WeatherDisplay:10.37,2013-05-25 17:39:00,
2013-05-25 13:41:00,65.7,-11.8,30.23,West,267,10.9,18.4,4,0.00,CLR,,0.00,WeatherDisplay:10.37,2013-05-25 17:41:00,
2013-05-25 13:42:00,66.0,-17.3,30.23,West,280,10.4,15.0,3,0.00,CLR,,0.00,WeatherDisplay:10.37,2013-05-25 17:42:00,
2013-05-25 13:43:00,65.8,-17.4,30.23,West,264,11.0,15.0,3,0.00,CLR,,0.00,WeatherDisplay:10.37,2013-05-25 17:43:00,
2013-05-25 13:44:00,65.6,-11.9,30.23,NW,316,10.3,16.1,4,0.00,CLR,,0.00,WeatherDisplay:10.37,2013-05-25 17:44:00,
2013-05-25 13:46:00,66.3,-17.1,30.22,West,267,9.2,12.5,3,0.00,CLR,,0.00,WeatherDisplay:10.37,2013-05-25 17:46:00,
2013-05-25 13:47:00,66.8,-11.0,30.22,WSW,253,7.8,13.8,4,0.00,CLR,,0.00,WeatherDisplay:10.37,2013-05-25 17:47:00,
2013-05-25 13:48:00,66.4,-11.3,30.22,WSW,244,7.4,13.8,4,0.00,CLR,,0.00,WeatherDisplay:10.37,2013-05-25 17:48:00,
2013-05-25 13:49:00,67.0,-16.6,30.22,WNW,292,6.9,9.9,3,0.00,CLR,,0.00,WeatherDisplay:10.37,2013-05-25 17:49:00,
2013-05-25 13:51:00,66.1,-11.5,30.22,NNW,339,12.4,23.0,4,0.00,CLR,,0.00,WeatherDisplay:10.37,2013-05-25 17:51:00,
2013-05-25 13:52:00,66.4,-17.0,30.22,NW,319,7.8,16.1,3,0.00,CLR,,0.00,WeatherDisplay:10.37,2013-05-25 17:52:00,
2013-05-25 13:53:00,66.5,-6.7,30.22,NW,323,8.9,11.5,5,0.00,CLR,,0.00,WeatherDisplay:10.37,2013-05-25 17:53:00,
2013-05-25 13:54:00,66.3,-11.4,30.22,West,261,10.2,17.3,4,0.00,CLR,,0.00,WeatherDisplay:10.37,2013-05-25 17:54:00,
2013-05-25 13:56:00,66.9,-10.9,30.22,North,360,7.6,13.8,4,0.00,CLR,,0.00,WeatherDisplay:10.37,2013-05-25 17:56:00,
2013-05-25 13:57:00,66.9,-10.9,30.22,NW,316,9.9,14.7,4,0.00,CLR,,0.00,WeatherDisplay:10.37,2013-05-25 17:57:00,
2013-05-25 13:58:00,66.6,-11.2,30.22,WSW,247,10.2,15.0,4,0.00,CLR,,0.00,WeatherDisplay:10.37,2013-05-25 17:58:00,
2013-05-25 13:59:00,66.6,-11.2,30.22,North,360,8.7,12.7,4,0.00,CLR,,0.00,WeatherDisplay:10.37,2013-05-25 17:59:00,
2013-05-25 14:01:00,66.6,-16.9,30.22,NW,325,8.9,12.7,3,0.00,CLR,,0.00,WeatherDisplay:10.37,2013-05-25 18:01:00,
2013-05-25 14:02:00,66.4,-11.3,30.21,WNW,287,8.1,15.0,4,0.00,CLR,,0.00,WeatherDisplay:10.37,2013-05-25 18:02:00,
2013-05-25 14:03:00,67.0,-10.9,30.21,SW,236,5.6,9.2,4,0.00,CLR,,0.00,WeatherDisplay:10.37,2013-05-25 18:03:00,
2013-05-25 14:05:00,67.1,-10.8,30.22,West,271,10.3,16.1,4,0.00,CLR,,0.00,WeatherDisplay:10.37,2013-05-25 18:05:00,
2013-05-25 14:06:00,67.1,-16.5,30.22,NNW,340,8.6,13.8,3,0.00,CLR,,0.00,WeatherDisplay:10.37,2013-05-25 18:06:00,
2013-05-25 14:07:00,66.8,-16.7,30.22,WNW,299,9.2,12.7,3,0.00,CLR,,0.00,WeatherDisplay:10.37,2013-05-25 18:07:00,
2013-05-25 14:08:00,67.0,-10.9,30.22,West,268,4.6,13.8,4,0.00,CLR,,0.00,WeatherDisplay:10.37,2013-05-25 18:08:00,
2013-05-25 14:10:00,67.3,-16.4,30.22,WNW,301,10.1,15.0,3,0.00,CLR,,0.00,WeatherDisplay:10.37,2013-05-25 18:10:00,
2013-05-25 14:11:00,67.4,-16.3,30.22,WNW,301,8.4,10.4,3,0.00,CLR,,0.00,WeatherDisplay:10.37,2013-05-25 18:11:00,
2013-05-25 14:12:00,67.4,-16.3,30.22,North,354,7.4,15.0,3,0.00,CLR,,0.00,WeatherDisplay:10.37,2013-05-25 18:12:00,
2013-05-25 14:13:00,67.2,-16.5,30.22,WNW,288,10.4,12.8,3,0.00,CLR,,0.00,WeatherDisplay:10.37,2013-05-25 18:13:00,
2013-05-25 14:14:00,67.0,-16.6,30.22,NNW,333,11.7,19.6,3,0.00,CLR,,0.00,WeatherDisplay:10.37,2013-05-25 18:14:00,
2013-05-25 14:15:00,67.1,-16.5,30.21,WNW,295,10.0,16.1,3,0.00,CLR,,0.00,WeatherDisplay:10.37,2013-05-25 18:15:00,
2013-05-25 14:16:00,66.6,-16.9,30.21,WSW,246,12.9,18.4,3,0.00,CLR,,0.00,WeatherDisplay:10.37,2013-05-25 18:16:00,
2013-05-25 14:18:00,66.8,-11.0,30.21,NW,311,9.4,16.1,4,0.00,CLR,,0.00,WeatherDisplay:10.37,2013-05-25 18:18:00,
2013-05-25 14:19:00,67.1,-16.5,30.21,WNW,288,6.6,15.0,3,0.00,CLR,,0.00,WeatherDisplay:10.37,2013-05-25 18:19:00,
2013-05-25 14:20:00,66.9,-10.9,30.21,NW,308,10.9,17.9,4,0.00,CLR,,0.00,WeatherDisplay:10.37,2013-05-25 18:20:00,
2013-05-25 14:22:00,67.1,-10.8,30.21,NW,318,9.8,23.0,4,0.00,CLR,,0.00,WeatherDisplay:10.37,2013-05-25 18:22:00,
2013-05-25 14:23:00,66.7,-11.1,30.21,WNW,299,11.0,20.7,4,0.00,CLR,,0.00,WeatherDisplay:10.37,2013-05-25 18:23:00,
2013-05-25 14:24:00,67.0,-10.9,30.21,NW,308,9.1,18.4,4,0.00,CLR,,0.00,WeatherDisplay:10.37,2013-05-25 18:24:00,
2013-05-25 14:25:00,67.3,-10.7,30.21,WSW,239,9.3,11.5,4,0.00,CLR,,0.00,WeatherDisplay:10.37,2013-05-25 18:25:00,
2013-05-25 14:27:00,67.4,-10.6,30.21,NW,311,7.7,12.7,4,0.00,CLR,,0.00,WeatherDisplay:10.37,2013-05-25 18:27:00,
2013-05-25 14:29:00,67.3,-16.4,30.21,WNW,301,11.2,16.1,3,0.00,CLR,,0.00,WeatherDisplay:10.37,2013-05-25 18:29:00,
2013-05-25 14:30:00,67.6,-10.5,30.21,WNW,294,9.5,15.0,4,0.00,CLR,,0.00,WeatherDisplay:10.37,2013-05-25 18:30:00,
2013-05-25 14:32:00,67.7,-10.4,30.21,West,261,10.0,17.3,4,0.00,CLR,,0.00,WeatherDisplay:10.37,2013-05-25 18:32:00,
2013-05-25 14:34:00,67.0,-16.6,30.21,NW,312,9.3,16.1,3,0.00,CLR,,0.00,WeatherDisplay:10.37,2013-05-25 18:34:00,
2013-05-25 14:35:00,66.3,-17.1,30.21,NNW,337,10.5,18.4,3,0.00,CLR,,0.00,WeatherDisplay:10.37,2013-05-25 18:35:00,
2013-05-25 14:36:00,66.9,-10.9,30.21,West,271,7.2,11.5,4,0.00,CLR,,0.00,WeatherDisplay:10.37,2013-05-25 18:36:00,
2013-05-25 14:37:00,66.7,-16.8,30.21,NW,313,12.6,19.6,3,0.00,CLR,,0.00,WeatherDisplay:10.37,2013-05-25 18:37:00,
2013-05-25 14:39:00,66.4,-17.0,30.21,WNW,299,11.5,16.1,3,0.00,CLR,,0.00,WeatherDisplay:10.37,2013-05-25 18:39:00,
2013-05-25 14:40:00,67.1,-10.8,30.21,West,268,6.6,18.4,4,0.00,CLR,,0.00,WeatherDisplay:10.37,2013-05-25 18:40:00,
2013-05-25 14:41:00,67.2,-10.7,30.21,NW,315,6.3,9.2,4,0.00,CLR,,0.00,WeatherDisplay:10.37,2013-05-25 18:41:00,
2013-05-25 14:42:00,67.2,-10.7,30.21,WNW,288,13.0,21.9,4,0.00,CLR,,0.00,WeatherDisplay:10.37,2013-05-25 18:42:00,
2013-05-25 14:44:00,67.0,-10.9,30.21,West,265,9.2,20.7,4,0.00,CLR,,0.00,WeatherDisplay:10.37,2013-05-25 18:44:00,
2013-05-25 14:45:00,67.2,-10.7,30.21,NW,311,8.4,10.5,4,0.00,CLR,,0.00,WeatherDisplay:10.37,2013-05-25 18:45:00,
2013-05-25 14:48:00,67.6,-16.2,30.21,West,272,11.9,17.3,3,0.00,CLR,,0.00,WeatherDisplay:10.37,2013-05-25 18:48:00,
2013-05-25 14:49:00,67.9,-16.0,30.22,WNW,298,10.2,13.8,3,0.00,CLR,,0.00,WeatherDisplay:10.37,2013-05-25 18:49:00,
2013-05-25 14:50:00,68.0,-10.2,30.21,WNW,298,8.4,16.1,4,0.00,CLR,,0.00,WeatherDisplay:10.37,2013-05-25 18:50:00,
2013-05-25 14:51:00,68.0,-10.2,30.21,West,281,8.6,15.0,4,0.00,CLR,,0.00,WeatherDisplay:10.37,2013-05-25 18:51:00,
2013-05-25 14:53:00,67.7,-16.1,30.21,WSW,247,10.4,19.6,3,0.00,CLR,,0.00,WeatherDisplay:10.37,2013-05-25 18:53:00,
2013-05-25 14:55:00,67.8,-10.3,30.21,WNW,301,5.8,15.0,4,0.00,CLR,,0.00,WeatherDisplay:10.37,2013-05-25 18:55:00,
2013-05-25 14:56:00,68.0,-10.2,30.21,WNW,289,6.2,10.4,4,0.00,CLR,,0.00,WeatherDisplay:10.37,2013-05-25 18:56:00,
2013-05-25 14:58:00,68.1,-15.9,30.21,West,277,10.0,16.1,3,0.00,CLR,,0.00,WeatherDisplay:10.37,2013-05-25 18:58:00,
2013-05-25 15:00:00,67.8,-16.1,30.21,WNW,292,10.4,16.1,3,0.00,CLR,,0.00,WeatherDisplay:10.37,2013-05-25 19:00:00,
2013-05-25 15:01:00,67.5,-16.3,30.21,WSW,250,10.1,16.1,3,0.00,CLR,,0.00,WeatherDisplay:10.37,2013-05-25 19:01:00,
2013-05-25 15:03:00,67.8,-16.1,30.21,North,360,8.7,11.5,3,0.00,CLR,,0.00,WeatherDisplay:10.37,2013-05-25 19:03:00,
2013-05-25 15:05:00,68.2,-10.0,30.21,WNW,296,9.1,10.4,4,0.00,CLR,,0.00,WeatherDisplay:10.37,2013-05-25 19:05:00,
2013-05-25 15:06:00,68.4,-15.7,30.21,West,281,8.4,12.7,3,0.00,CLR,,0.00,WeatherDisplay:10.37,2013-05-25 19:06:00,
2013-05-25 15:09:00,68.0,-15.9,30.21,North,6,9.8,16.1,3,0.00,CLR,,0.00,WeatherDisplay:10.37,2013-05-25 19:09:00,
2013-05-25 15:11:00,68.3,-10.0,30.21,NNW,340,9.4,13.8,4,0.00,CLR,,0.00,WeatherDisplay:10.37,2013-05-25 19:11:00,
2013-05-25 15:14:00,68.5,-15.6,30.21,NW,316,7.5,12.7,3,0.00,CLR,,0.00,WeatherDisplay:10.37,2013-05-25 19:14:00,
2013-05-25 15:16:00,68.1,-15.9,30.21,WNW,298,9.8,20.7,3,0.00,CLR,,0.00,WeatherDisplay:10.37,2013-05-25 19:16:00,
2013-05-25 15:17:00,68.1,-15.9,30.21,WNW,298,12.1,15.3,3,0.00,CLR,,0.00,WeatherDisplay:10.37,2013-05-25 19:17:00,
2013-05-25 15:19:00,67.8,-16.1,30.21,NW,311,11.6,20.5,3,0.00,CLR,,0.00,WeatherDisplay:10.37,2013-05-25 19:19:00,
2013-05-25 15:21:00,67.7,-16.1,30.21,West,264,10.8,16.1,3,0.00,CLR,,0.00,WeatherDisplay:10.37,2013-05-25 19:21:00,
2013-05-25 15:22:00,67.9,-16.0,30.21,North,349,9.7,16.1,3,0.00,CLR,,0.00,WeatherDisplay:10.37,2013-05-25 19:22:00,
2013-05-25 15:24:00,68.2,-15.8,30.21,West,278,8.6,14.9,3,0.00,CLR,,0.00,WeatherDisplay:10.37,2013-05-25 19:24:00,
2013-05-25 15:26:00,68.1,-10.1,30.21,NW,316,8.4,16.1,4,0.00,CLR,,0.00,WeatherDisplay:10.37,2013-05-25 19:26:00,
2013-05-25 15:27:00,68.3,-15.7,30.20,West,260,9.5,13.0,3,0.00,CLR,,0.00,WeatherDisplay:10.37,2013-05-25 19:27:00,
2013-05-25 15:28:00,68.4,-15.7,30.20,NNW,337,9.4,13.8,3,0.00,CLR,,0.00,WeatherDisplay:10.37,2013-05-25 19:28:00,
2013-05-25 15:29:00,68.1,-15.9,30.20,NW,318,11.8,15.1,3,0.00,CLR,,0.00,WeatherDisplay:10.37,2013-05-25 19:29:00,
2013-05-25 15:31:00,68.1,-10.1,30.20,West,260,10.7,19.6,4,0.00,CLR,,0.00,WeatherDisplay:10.37,2013-05-25 19:31:00,
2013-05-25 15:32:00,68.2,-10.0,30.21,NW,309,8.0,13.8,4,0.00,CLR,,0.00,WeatherDisplay:10.37,2013-05-25 19:32:00,
2013-05-25 15:33:00,68.5,-15.6,30.21,WNW,292,4.6,10.4,3,0.00,CLR,,0.00,WeatherDisplay:10.37,2013-05-25 19:33:00,
2013-05-25 15:35:00,68.7,-15.5,30.20,WNW,287,8.0,13.8,3,0.00,CLR,,0.00,WeatherDisplay:10.37,2013-05-25 19:35:00,
2013-05-25 15:36:00,68.8,-15.4,30.20,WSW,244,8.9,17.7,3,0.00,CLR,,0.00,WeatherDisplay:10.37,2013-05-25 19:36:00,
2013-05-25 15:37:00,68.7,-15.5,30.20,WNW,292,9.6,14.0,3,0.00,CLR,,0.00,WeatherDisplay:10.37,2013-05-25 19:37:00,
2013-05-25 15:38:00,68.7,-9.7,30.20,WNW,289,6.6,17.3,4,0.00,CLR,,0.00,WeatherDisplay:10.37,2013-05-25 19:38:00,
2013-05-25 15:40:00,69.0,-15.3,30.20,NW,313,10.7,17.3,3,0.00,CLR,,0.00,WeatherDisplay:10.37,2013-05-25 19:40:00,
2013-05-25 15:42:00,68.5,-9.8,30.21,WNW,289,10.7,18.4,4,0.00,CLR,,0.00,WeatherDisplay:10.37,2013-05-25 19:42:00,
2013-05-25 15:44:00,68.0,-15.9,30.21,North,3,12.3,19.6,3,0.00,CLR,,0.00,WeatherDisplay:10.37,2013-05-25 19:44:00,
2013-05-25 15:45:00,68.4,-9.9,30.20,North,1,6.8,15.0,4,0.00,CLR,,0.00,WeatherDisplay:10.37,2013-05-25 19:45:00,
2013-05-25 15:47:00,69.1,-9.4,30.20,NW,308,5.0,11.5,4,0.00,CLR,,0.00,WeatherDisplay:10.37,2013-05-25 19:47:00,
2013-05-25 15:49:00,68.5,-9.8,30.21,West,274,8.5,13.8,4,0.00,CLR,,0.00,WeatherDisplay:10.37,2013-05-25 19:49:00,
2013-05-25 15:50:00,68.9,-15.3,30.20,NW,318,5.2,9.6,3,0.00,CLR,,0.00,WeatherDisplay:10.37,2013-05-25 19:50:00,
2013-05-25 15:52:00,69.3,-15.1,30.21,SW,234,9.3,12.7,3,0.00,CLR,,0.00,WeatherDisplay:10.37,2013-05-25 19:52:00,
2013-05-25 15:53:00,69.4,-15.0,30.21,NNE,27,8.3,13.8,3,0.00,CLR,,0.00,WeatherDisplay:10.37,2013-05-25 19:53:00,
2013-05-25 15:54:00,69.0,-15.3,30.21,NNW,343,6.9,11.5,3,0.00,CLR,,0.00,WeatherDisplay:10.37,2013-05-25 19:54:00,
2013-05-25 15:55:00,68.9,-15.3,30.20,NNW,330,7.3,13.9,3,0.00,CLR,,0.00,WeatherDisplay:10.37,2013-05-25 19:55:00,
2013-05-25 15:57:00,68.9,-9.6,30.20,NNW,343,7.9,13.8,4,0.00,CLR,,0.00,WeatherDisplay:10.37,2013-05-25 19:57:00,
2013-05-25 15:58:00,69.1,-15.2,30.20,WNW,292,9.6,15.0,3,0.00,CLR,,0.00,WeatherDisplay:10.37,2013-05-25 19:58:00,
2013-05-25 15:59:00,68.9,-15.3,30.20,NNW,336,7.8,12.7,3,0.00,CLR,,0.00,WeatherDisplay:10.37,2013-05-25 19:59:00,
2013-05-25 16:01:00,68.5,-23.4,30.20,WNW,302,13.0,19.6,2,0.00,CLR,,0.00,WeatherDisplay:10.37,2013-05-25 20:01:00,
2013-05-25 16:02:00,68.7,-15.5,30.20,North,360,9.6,15.0,3,0.00,CLR,,0.00,WeatherDisplay:10.37,2013-05-25 20:02:00,
2013-05-25 16:04:00,68.1,-23.7,30.20,NW,316,12.1,17.3,2,0.00,CLR,,0.00,WeatherDisplay:10.37,2013-05-25 20:04:00,
2013-05-25 16:06:00,68.1,-15.9,30.20,NW,320,11.3,20.7,3,0.00,CLR,,0.00,WeatherDisplay:10.37,2013-05-25 20:06:00,
2013-05-25 16:07:00,68.1,-15.9,30.20,WNW,287,10.1,17.0,3,0.00,CLR,,0.00,WeatherDisplay:10.37,2013-05-25 20:07:00,
2013-05-25 16:08:00,68.0,-15.9,30.20,NNW,332,9.9,13.8,3,0.00,CLR,,0.00,WeatherDisplay:10.37,2013-05-25 20:08:00,
2013-05-25 16:09:00,67.8,-23.9,30.20,NNW,330,12.2,19.6,2,0.00,CLR,,0.00,WeatherDisplay:10.37,2013-05-25 20:09:00,
2013-05-25 16:11:00,68.0,-23.8,30.20,WNW,298,10.4,12.7,2,0.00,CLR,,0.00,WeatherDisplay:10.37,2013-05-25 20:11:00,
2013-05-25 16:13:00,67.7,-24.0,30.20,NNW,337,13.4,20.3,2,0.00,CLR,,0.00,WeatherDisplay:10.37,2013-05-25 20:13:00,
2013-05-25 16:14:00,67.7,-16.1,30.20,NNW,342,11.3,18.4,3,0.00,CLR,,0.00,WeatherDisplay:10.37,2013-05-25 20:14:00,
2013-05-25 16:15:00,67.6,-16.2,30.20,WNW,301,10.5,18.4,3,0.00,CLR,,0.00,WeatherDisplay:10.37,2013-05-25 20:15:00,
2013-05-25 16:16:00,67.9,-16.0,30.20,NNW,343,10.0,14.4,3,0.00,CLR,,0.00,WeatherDisplay:10.37,2013-05-25 20:16:00,
2013-05-25 16:18:00,67.4,-16.3,30.20,North,353,14.6,20.7,3,0.00,CLR,,0.00,WeatherDisplay:10.37,2013-05-25 20:18:00,
2013-05-25 16:19:00,68.0,-23.8,30.20,NNW,346,10.0,15.0,2,0.00,CLR,,0.00,WeatherDisplay:10.37,2013-05-25 20:19:00,
2013-05-25 16:20:00,67.9,-23.8,30.20,NNW,335,9.1,15.0,2,0.00,CLR,,0.00,WeatherDisplay:10.37,2013-05-25 20:20:00,
2013-05-25 16:21:00,67.8,-23.9,30.20,NW,312,11.4,19.0,2,0.00,CLR,,0.00,WeatherDisplay:10.37,2013-05-25 20:21:00,
2013-05-25 16:23:00,67.4,-16.3,30.20,NW,305,10.9,19.6,3,0.00,CLR,,0.00,WeatherDisplay:10.37,2013-05-25 20:23:00,
2013-05-25 16:24:00,68.0,-23.8,30.20,North,7,8.2,16.1,2,0.00,CLR,,0.00,WeatherDisplay:10.37,2013-05-25 20:24:00,
2013-05-25 16:25:00,68.2,-23.6,30.20,NNE,14,10.3,14.5,2,0.00,CLR,,0.00,WeatherDisplay:10.37,2013-05-25 20:25:00,
2013-05-25 16:26:00,67.9,-16.0,30.20,North,354,8.3,15.0,3,0.00,CLR,,0.00,WeatherDisplay:10.37,2013-05-25 20:26:00,
2013-05-25 16:29:00,68.4,-15.7,30.20,West,261,8.1,12.7,3,0.00,CLR,,0.00,WeatherDisplay:10.37,2013-05-25 20:29:00,
2013-05-25 16:30:00,68.0,-23.8,30.20,NW,315,11.6,12.7,2,0.00,CLR,,0.00,WeatherDisplay:10.37,2013-05-25 20:30:00,
2013-05-25 16:31:00,68.1,-23.7,30.20,WNW,285,11.2,18.7,2,0.00,CLR,,0.00,WeatherDisplay:10.37,2013-05-25 20:31:00,
2013-05-25 16:34:00,67.8,-23.9,30.20,WNW,295,10.6,20.1,2,0.00,CLR,,0.00,WeatherDisplay:10.37,2013-05-25 20:34:00,
2013-05-25 16:35:00,67.9,-16.0,30.20,NW,311,13.2,20.7,3,0.00,CLR,,0.00,WeatherDisplay:10.37,2013-05-25 20:35:00,
2013-05-25 16:36:00,67.8,-16.1,30.20,North,352,9.6,19.6,3,0.00,CLR,,0.00,WeatherDisplay:10.37,2013-05-25 20:36:00,
2013-05-25 16:39:00,67.7,-16.1,30.20,North,353,9.0,13.8,3,0.00,CLR,,0.00,WeatherDisplay:10.37,2013-05-25 20:39:00,
2013-05-25 16:40:00,67.7,-16.1,30.20,NNW,329,8.7,13.8,3,0.00,CLR,,0.00,WeatherDisplay:10.37,2013-05-25 20:40:00,
2013-05-25 16:41:00,67.5,-16.3,30.20,NNW,343,10.3,18.4,3,0.00,CLR,,0.00,WeatherDisplay:10.37,2013-05-25 20:41:00,
2013-05-25 16:44:00,67.8,-16.1,30.20,NW,322,8.7,13.8,3,0.00,CLR,,0.00,WeatherDisplay:10.37,2013-05-25 20:44:00,
2013-05-25 16:45:00,67.8,-16.1,30.20,NNW,328,8.2,16.2,3,0.00,CLR,,0.00,WeatherDisplay:10.37,2013-05-25 20:45:00,
2013-05-25 16:46:00,68.0,-15.9,30.20,NNW,346,12.2,20.7,3,0.00,CLR,,0.00,WeatherDisplay:10.37,2013-05-25 20:46:00,
2013-05-25 16:47:00,67.7,-16.1,30.20,North,350,12.9,17.3,3,0.00,CLR,,0.00,WeatherDisplay:10.37,2013-05-25 20:47:00,
2013-05-25 16:49:00,67.2,-16.5,30.20,WNW,284,9.8,15.0,3,0.00,CLR,,0.00,WeatherDisplay:10.37,2013-05-25 20:49:00,
2013-05-25 16:50:00,67.9,-16.0,30.20,WSW,256,9.9,15.0,3,0.00,CLR,,0.00,WeatherDisplay:10.37,2013-05-25 20:50:00,
2013-05-25 16:51:00,67.7,-16.1,30.20,NNW,328,7.8,13.8,3,0.00,CLR,,0.00,WeatherDisplay:10.37,2013-05-25 20:51:00,
2013-05-25 16:52:00,67.8,-16.1,30.20,NW,305,7.3,12.7,3,0.00,CLR,,0.00,WeatherDisplay:10.37,2013-05-25 20:52:00,
2013-05-25 16:54:00,67.7,-16.1,30.19,NW,325,13.0,19.6,3,0.00,CLR,,0.00,WeatherDisplay:10.37,2013-05-25 20:54:00,
2013-05-25 16:55:00,67.6,-16.2,30.19,North,360,11.7,17.3,3,0.00,CLR,,0.00,WeatherDisplay:10.37,2013-05-25 20:55:00,
2013-05-25 16:56:00,67.4,-16.3,30.20,NW,309,11.2,18.5,3,0.00,CLR,,0.00,WeatherDisplay:10.37,2013-05-25 20:56:00,
2013-05-25 16:57:00,67.4,-16.3,30.20,NW,315,12.6,18.4,3,0.00,CLR,,0.00,WeatherDisplay:10.37,2013-05-25 20:57:00,
2013-05-25 16:59:00,67.5,-16.3,30.19,North,3,9.1,16.1,3,0.00,CLR,,0.00,WeatherDisplay:10.37,2013-05-25 20:59:00,
2013-05-25 17:00:00,67.5,-16.3,30.19,WNW,298,9.5,13.8,3,0.00,CLR,,0.00,WeatherDisplay:10.37,2013-05-25 21:00:00,
2013-05-25 17:01:00,67.7,-16.1,30.19,North,1,6.9,13.8,3,0.00,CLR,,0.00,WeatherDisplay:10.37,2013-05-25 21:01:00,
2013-05-25 17:02:00,67.8,-10.3,30.19,NNW,330,7.3,12.7,4,0.00,CLR,,0.00,WeatherDisplay:10.37,2013-05-25 21:02:00,
2013-05-25 17:05:00,67.6,-16.2,30.20,North,0,9.9,15.0,3,0.00,CLR,,0.00,WeatherDisplay:10.37,2013-05-25 21:05:00,
2013-05-25 17:06:00,67.4,-16.3,30.19,NW,313,12.0,16.2,3,0.00,CLR,,0.00,WeatherDisplay:10.37,2013-05-25 21:06:00,
2013-05-25 17:07:00,67.4,-16.3,30.20,NNW,328,11.1,17.3,3,0.00,CLR,,0.00,WeatherDisplay:10.37,2013-05-25 21:07:00,
2013-05-25 17:10:00,67.4,-16.3,30.19,North,360,10.3,17.3,3,0.00,CLR,,0.00,WeatherDisplay:10.37,2013-05-25 21:10:00,
2013-05-25 17:11:00,67.8,-16.1,30.19,NNW,333,7.5,17.3,3,0.00,CLR,,0.00,WeatherDisplay:10.37,2013-05-25 21:11:00,
2013-05-25 17:12:00,68.0,-15.9,30.19,WNW,296,9.0,12.5,3,0.00,CLR,,0.00,WeatherDisplay:10.37,2013-05-25 21:12:00,
2013-05-25 17:15:00,67.4,-10.6,30.19,North,360,11.1,17.3,4,0.00,CLR,,0.00,WeatherDisplay:10.37,2013-05-25 21:15:00,
2013-05-25 17:16:00,68.1,-15.9,30.19,WNW,302,8.9,17.3,3,0.00,CLR,,0.00,WeatherDisplay:10.37,2013-05-25 21:16:00,
2013-05-25 17:17:00,67.7,-10.4,30.19,North,360,9.7,16.1,4,0.00,CLR,,0.00,WeatherDisplay:10.37,2013-05-25 21:17:00,
2013-05-25 17:18:00,68.1,-15.9,30.19,NW,304,9.5,17.3,3,0.00,CLR,,0.00,WeatherDisplay:10.37,2013-05-25 21:18:00,
2013-05-25 17:21:00,67.1,-16.5,30.20,NW,306,11.1,18.4,3,0.00,CLR,,0.00,WeatherDisplay:10.37,2013-05-25 21:21:00,
2013-05-25 17:22:00,67.7,-10.4,30.19,WNW,299,9.4,17.3,4,0.00,CLR,,0.00,WeatherDisplay:10.37,2013-05-25 21:22:00,
2013-05-25 17:23:00,67.2,-16.5,30.19,NNW,337,9.1,15.0,3,0.00,CLR,,0.00,WeatherDisplay:10.37,2013-05-25 21:23:00,
2013-05-25 17:26:00,67.2,-10.7,30.19,NNW,337,11.5,20.7,4,0.00,CLR,,0.00,WeatherDisplay:10.37,2013-05-25 21:26:00,
2013-05-25 17:27:00,67.0,-16.6,30.19,NW,304,11.3,20.7,3,0.00,CLR,,0.00,WeatherDisplay:10.37,2013-05-25 21:27:00,
2013-05-25 17:28:00,67.7,-10.4,30.19,North,8,7.2,12.7,4,0.00,CLR,,0.00,WeatherDisplay:10.37,2013-05-25 21:28:00,
2013-05-25 17:31:00,67.1,-16.5,30.19,NW,313,10.4,16.1,3,0.00,CLR,,0.00,WeatherDisplay:10.37,2013-05-25 21:31:00,
2013-05-25 17:32:00,67.5,-16.3,30.19,NW,306,8.3,16.1,3,0.00,CLR,,0.00,WeatherDisplay:10.37,2013-05-25 21:32:00,
2013-05-25 17:33:00,67.2,-10.7,30.19,North,360,4.7,11.5,4,0.00,CLR,,0.00,WeatherDisplay:10.37,2013-05-25 21:33:00,
2013-05-25 17:36:00,67.0,-16.6,30.19,NNW,335,12.4,18.4,3,0.00,CLR,,0.00,WeatherDisplay:10.37,2013-05-25 21:36:00,
2013-05-25 17:37:00,67.3,-10.7,30.19,NW,311,11.0,19.6,4,0.00,CLR,,0.00,WeatherDisplay:10.37,2013-05-25 21:37:00,
2013-05-25 17:38:00,66.5,-11.2,30.19,North,356,11.3,15.0,4,0.00,CLR,,0.00,WeatherDisplay:10.37,2013-05-25 21:38:00,
2013-05-25 17:41:00,67.4,-10.6,30.19,NW,306,3.7,9.2,4,0.00,CLR,,0.00,WeatherDisplay:10.37,2013-05-25 21:41:00,
2013-05-25 17:42:00,67.2,-16.5,30.19,NW,315,7.0,12.6,3,0.00,CLR,,0.00,WeatherDisplay:10.37,2013-05-25 21:42:00,
2013-05-25 17:43:00,67.0,-10.9,30.19,NW,319,10.7,16.1,4,0.00,CLR,,0.00,WeatherDisplay:10.37,2013-05-25 21:43:00,
2013-05-25 17:44:00,67.0,-10.9,30.19,North,360,10.3,16.1,4,0.00,CLR,,0.00,WeatherDisplay:10.37,2013-05-25 21:44:00,
2013-05-25 17:46:00,67.3,-16.4,30.19,NW,320,11.0,14.2,3,0.00,CLR,,0.00,WeatherDisplay:10.37,2013-05-25 21:46:00,
2013-05-25 17:47:00,66.8,-11.0,30.19,NNW,328,10.6,17.3,4,0.00,CLR,,0.00,WeatherDisplay:10.37,2013-05-25 21:47:00,
2013-05-25 17:48:00,66.9,-10.9,30.19,NW,311,6.9,17.3,4,0.00,CLR,,0.00,WeatherDisplay:10.37,2013-05-25 21:48:00,
2013-05-25 17:49:00,67.1,-10.8,30.19,North,357,8.0,11.5,4,0.00,CLR,,0.00,WeatherDisplay:10.37,2013-05-25 21:49:00,
2013-05-25 17:51:00,67.3,-10.7,30.19,NW,325,7.2,17.0,4,0.00,CLR,,0.00,WeatherDisplay:10.37,2013-05-25 21:51:00,
2013-05-25 17:53:00,66.9,-16.7,30.19,WNW,287,8.4,18.4,3,0.00,CLR,,0.00,WeatherDisplay:10.37,2013-05-25 21:53:00,
2013-05-25 17:54:00,66.7,-16.8,30.20,North,360,12.2,19.6,3,0.00,CLR,,0.00,WeatherDisplay:10.37,2013-05-25 21:54:00,
2013-05-25 17:57:00,66.7,-11.1,30.20,NW,323,7.2,14.2,4,0.00,CLR,,0.00,WeatherDisplay:10.37,2013-05-25 21:57:00,
2013-05-25 17:58:00,66.6,-11.2,30.20,NNW,328,8.1,13.8,4,0.00,CLR,,0.00,WeatherDisplay:10.37,2013-05-25 21:58:00,
2013-05-25 17:59:00,66.9,-10.9,30.20,NW,325,5.8,13.8,4,0.00,CLR,,0.00,WeatherDisplay:10.37,2013-05-25 21:59:00,
2013-05-25 18:00:00,66.8,-11.0,30.20,WNW,291,5.8,11.3,4,0.00,CLR,,0.00,WeatherDisplay:10.37,2013-05-25 22:00:00,
2013-05-25 18:02:00,66.6,-11.2,30.20,NW,319,13.5,20.7,4,0.00,CLR,,0.00,WeatherDisplay:10.37,2013-05-25 22:02:00,
2013-05-25 18:03:00,66.4,-11.3,30.20,North,0,9.4,15.0,4,0.00,CLR,,0.00,WeatherDisplay:10.37,2013-05-25 22:03:00,
2013-05-25 18:04:00,65.8,-11.7,30.20,NW,316,9.4,15.0,4,0.00,CLR,,0.00,WeatherDisplay:10.37,2013-05-25 22:04:00,
2013-05-25 18:05:00,66.7,-11.1,30.20,West,271,5.2,15.0,4,0.00,CLR,,0.00,WeatherDisplay:10.37,2013-05-25 22:05:00,
2013-05-25 18:07:00,66.3,-11.4,30.20,NW,320,9.8,12.7,4,0.00,CLR,,0.00,WeatherDisplay:10.37,2013-05-25 22:07:00,
2013-05-25 18:08:00,66.2,-11.4,30.20,NW,323,6.7,10.4,4,0.00,CLR,,0.00,WeatherDisplay:10.37,2013-05-25 22:08:00,
2013-05-25 18:09:00,66.1,-11.5,30.20,West,270,6.9,10.4,4,0.00,CLR,,0.00,WeatherDisplay:10.37,2013-05-25 22:09:00,
2013-05-25 18:10:00,66.1,-11.5,30.20,NW,309,8.9,10.5,4,0.00,CLR,,0.00,WeatherDisplay:10.37,2013-05-25 22:10:00,
2013-05-25 18:12:00,65.8,-11.7,30.20,NNW,342,7.9,12.7,4,0.00,CLR,,0.00,WeatherDisplay:10.37,2013-05-25 22:12:00,
2013-05-25 18:13:00,65.8,-11.7,30.20,NNW,342,9.0,15.0,4,0.00,CLR,,0.00,WeatherDisplay:10.37,2013-05-25 22:13:00,
2013-05-25 18:14:00,65.8,-11.7,30.20,NW,304,9.2,13.8,4,0.00,CLR,,0.00,WeatherDisplay:10.37,2013-05-25 22:14:00,
2013-05-25 18:15:00,65.5,-11.9,30.20,NW,322,8.7,13.8,4,0.00,CLR,,0.00,WeatherDisplay:10.37,2013-05-25 22:15:00,
2013-05-25 18:17:00,65.6,-11.9,30.20,North,349,8.4,11.5,4,0.00,CLR,,0.00,WeatherDisplay:10.37,2013-05-25 22:17:00,
2013-05-25 18:18:00,65.5,-11.9,30.20,North,350,5.2,10.4,4,0.00,CLR,,0.00,WeatherDisplay:10.37,2013-05-25 22:18:00,
2013-05-25 18:19:00,65.6,-11.9,30.20,WNW,291,8.0,15.0,4,0.00,CLR,,0.00,WeatherDisplay:10.37,2013-05-25 22:19:00,
2013-05-25 18:20:00,65.6,-11.9,30.20,NW,325,9.1,15.0,4,0.00,CLR,,0.00,WeatherDisplay:10.37,2013-05-25 22:20:00,
2013-05-25 18:22:00,65.5,-11.9,30.21,WNW,294,4.9,10.4,4,0.00,CLR,,0.00,WeatherDisplay:10.37,2013-05-25 22:22:00,
2013-05-25 18:24:00,66.2,-11.4,30.21,West,278,8.8,14.9,4,0.00,CLR,,0.00,WeatherDisplay:10.37,2013-05-25 22:24:00,
2013-05-25 18:25:00,65.9,-11.6,30.21,WNW,291,9.0,15.0,4,0.00,CLR,,0.00,WeatherDisplay:10.37,2013-05-25 22:25:00,
2013-05-25 18:27:00,66.0,-11.6,30.21,NW,323,10.1,15.0,4,0.00,CLR,,0.00,WeatherDisplay:10.37,2013-05-25 22:27:00,
2013-05-25 18:29:00,66.0,-11.6,30.21,NW,319,9.8,13.8,4,0.00,CLR,,0.00,WeatherDisplay:10.37,2013-05-25 22:29:00,
2013-05-25 18:30:00,65.6,-11.9,30.21,WNW,291,9.2,15.0,4,0.00,CLR,,0.00,WeatherDisplay:10.37,2013-05-25 22:30:00,
2013-05-25 18:33:00,65.2,-12.1,30.21,WNW,296,10.1,13.8,4,0.00,CLR,,0.00,WeatherDisplay:10.37,2013-05-25 22:33:00,
2013-05-25 18:34:00,65.3,-12.1,30.21,NNW,332,9.6,13.8,4,0.00,CLR,,0.00,WeatherDisplay:10.37,2013-05-25 22:34:00,
2013-05-25 18:35:00,65.2,-12.1,30.21,NW,326,9.3,13.8,4,0.00,CLR,,0.00,WeatherDisplay:10.37,2013-05-25 22:35:00,
2013-05-25 18:38:00,64.8,-7.9,30.21,NW,316,5.7,11.7,5,0.00,CLR,,0.00,WeatherDisplay:10.37,2013-05-25 22:38:00,
2013-05-25 18:39:00,64.6,-8.0,30.21,NW,320,8.5,11.5,5,0.00,CLR,,0.00,WeatherDisplay:10.37,2013-05-25 22:39:00,
2013-05-25 18:40:00,64.8,-7.9,30.21,WNW,291,7.1,10.4,5,0.00,CLR,,0.00,WeatherDisplay:10.37,2013-05-25 22:40:00,
2013-05-25 18:43:00,64.7,-8.0,30.21,NW,326,5.8,10.4,5,0.00,CLR,,0.00,WeatherDisplay:10.37,2013-05-25 22:43:00,
2013-05-25 18:45:00,65.1,-12.2,30.21,NW,322,7.6,10.4,4,0.00,CLR,,0.00,WeatherDisplay:10.37,2013-05-25 22:45:00,
2013-05-25 18:46:00,64.9,-12.3,30.21,NW,315,10.3,10.9,4,0.00,CLR,,0.00,WeatherDisplay:10.37,2013-05-25 22:46:00,
2013-05-25 18:48:00,64.9,-12.3,30.20,NNW,329,7.9,10.7,4,0.00,CLR,,0.00,WeatherDisplay:10.37,2013-05-25 22:48:00,
2013-05-25 18:50:00,65.2,-7.6,30.20,NNW,346,9.6,17.3,5,0.00,CLR,,0.00,WeatherDisplay:10.37,2013-05-25 22:50:00,
2013-05-25 18:51:00,64.9,-7.8,30.20,NW,316,9.8,17.3,5,0.00,CLR,,0.00,WeatherDisplay:10.37,2013-05-25 22:51:00,
2013-05-25 18:53:00,65.4,-7.5,30.20,WNW,298,8.1,12.7,5,0.00,CLR,,0.00,WeatherDisplay:10.37,2013-05-25 22:53:00,
2013-05-25 18:55:00,65.6,-7.3,30.21,NW,318,5.7,10.4,5,0.00,CLR,,0.00,WeatherDisplay:10.37,2013-05-25 22:55:00,
2013-05-25 18:56:00,65.7,-7.2,30.21,NW,313,5.1,10.4,5,0.00,CLR,,0.00,WeatherDisplay:10.37,2013-05-25 22:56:00,
2013-05-25 18:58:00,65.4,-3.7,30.21,NNW,329,1.7,8.1,6,0.00,CLR,,0.00,WeatherDisplay:10.37,2013-05-25 22:58:00,
2013-05-25 19:00:00,65.6,-7.3,30.21,West,263,3.7,6.9,5,0.00,CLR,,0.00,WeatherDisplay:10.37,2013-05-25 23:00:00,
2013-05-25 19:01:00,65.9,-7.1,30.21,West,263,2.8,6.9,5,0.00,CLR,,0.00,WeatherDisplay:10.37,2013-05-25 23:01:00,
2013-05-25 19:03:00,65.4,-7.5,30.21,NNW,333,6.6,10.4,5,0.00,CLR,,0.00,WeatherDisplay:10.37,2013-05-25 23:03:00,
2013-05-25 19:06:00,65.2,-7.6,30.21,WNW,298,7.3,10.0,5,0.00,CLR,,0.00,WeatherDisplay:10.37,2013-05-25 23:06:00,
2013-05-25 19:07:00,65.6,-7.3,30.21,WNW,302,5.2,9.2,5,0.00,CLR,,0.00,WeatherDisplay:10.37,2013-05-25 23:07:00,
2013-05-25 19:08:00,65.3,-7.5,30.21,NW,318,5.9,11.5,5,0.00,CLR,,0.00,WeatherDisplay:10.37,2013-05-25 23:08:00,
2013-05-25 19:11:00,65.6,-7.3,30.22,NNW,339,4.9,11.5,5,0.00,CLR,,0.00,WeatherDisplay:10.37,2013-05-25 23:11:00,
2013-05-25 19:12:00,65.2,-7.6,30.22,NW,311,8.4,11.5,5,0.00,CLR,,0.00,WeatherDisplay:10.37,2013-05-25 23:12:00,
2013-05-25 19:14:00,65.4,-7.5,30.22,North,0,3.8,10.4,5,0.00,CLR,,0.00,WeatherDisplay:10.37,2013-05-25 23:14:00,
2013-05-25 19:16:00,66.1,-7.0,30.22,NNW,347,3.6,8.1,5,0.00,CLR,,0.00,WeatherDisplay:10.37,2013-05-25 23:16:00,
2013-05-25 19:17:00,65.5,-7.4,30.22,NNW,329,3.6,9.2,5,0.00,CLR,,0.00,WeatherDisplay:10.37,2013-05-25 23:17:00,
2013-05-25 19:18:00,65.4,-7.5,30.22,NW,326,3.4,6.9,5,0.00,CLR,,0.00,WeatherDisplay:10.37,2013-05-25 23:18:00,
2013-05-25 19:19:00,65.1,-7.7,30.22,NW,326,0.2,6.9,5,0.00,CLR,,0.00,WeatherDisplay:10.37,2013-05-25 23:19:00,
2013-05-25 19:21:00,64.9,-4.0,30.22,North,360,4.6,8.1,6,0.00,CLR,,0.00,WeatherDisplay:10.37,2013-05-25 23:21:00,
2013-05-25 19:22:00,65.0,-7.7,30.22,North,360,0.0,2.3,5,0.00,CLR,,0.00,WeatherDisplay:10.37,2013-05-25 23:22:00,
2013-05-25 19:24:00,65.0,-4.0,30.22,WNW,298,0.7,9.9,6,0.00,CLR,,0.00,WeatherDisplay:10.37,2013-05-25 23:24:00,
2013-05-25 19:26:00,64.4,-8.2,30.22,NW,319,5.6,8.1,5,0.00,CLR,,0.00,WeatherDisplay:10.37,2013-05-25 23:26:00,
2013-05-25 19:27:00,64.5,-4.3,30.22,NW,306,5.5,9.4,6,0.00,CLR,,0.00,WeatherDisplay:10.37,2013-05-25 23:27:00,
2013-05-25 19:29:00,64.1,-4.6,30.22,NNW,340,6.7,9.2,6,0.00,CLR,,0.00,WeatherDisplay:10.37,2013-05-25 23:29:00,
2013-05-25 19:31:00,63.5,-5.1,30.22,West,272,3.1,6.9,6,0.00,CLR,,0.00,WeatherDisplay:10.37,2013-05-25 23:31:00,
2013-05-25 19:32:00,63.7,-8.7,30.22,NW,315,4.9,9.6,5,0.00,CLR,,0.00,WeatherDisplay:10.37,2013-05-25 23:32:00,
2013-05-25 19:34:00,63.7,-4.9,30.22,WSW,254,1.0,4.6,6,0.00,CLR,,0.00,WeatherDisplay:10.37,2013-05-25 23:34:00,
2013-05-25 19:37:00,63.9,-4.8,30.22,West,275,3.5,10.4,6,0.00,CLR,,0.00,WeatherDisplay:10.37,2013-05-25 23:37:00,
2013-05-25 19:39:00,63.4,-5.1,30.22,North,354,3.0,6.2,6,0.00,CLR,,0.00,WeatherDisplay:10.37,2013-05-25 23:39:00,
2013-05-25 19:42:00,63.0,-5.4,30.22,WNW,301,6.6,11.5,6,0.00,CLR,,0.00,WeatherDisplay:10.37,2013-05-25 23:42:00,
2013-05-25 19:43:00,63.0,-5.4,30.22,WNW,298,8.3,12.7,6,0.00,CLR,,0.00,WeatherDisplay:10.37,2013-05-25 23:43:00,
2013-05-25 19:44:00,63.3,-5.2,30.22,West,270,4.6,9.2,6,0.00,CLR,,0.00,WeatherDisplay:10.37,2013-05-25 23:44:00,
2013-05-25 19:47:00,63.2,-5.3,30.22,NW,308,4.0,8.1,6,0.00,CLR,,0.00,WeatherDisplay:10.37,2013-05-25 23:47:00,
2013-05-25 19:48:00,63.3,-5.2,30.22,NW,323,3.2,6.9,6,0.00,CLR,,0.00,WeatherDisplay:10.37,2013-05-25 23:48:00,
2013-05-25 19:49:00,63.4,-5.1,30.22,WNW,296,5.1,8.6,6,0.00,CLR,,0.00,WeatherDisplay:10.37,2013-05-25 23:49:00,
2013-05-25 19:50:00,63.4,-5.1,30.22,NW,311,7.6,10.4,6,0.00,CLR,,0.00,WeatherDisplay:10.37,2013-05-25 23:50:00,
2013-05-25 19:52:00,63.7,-4.9,30.22,NW,311,5.6,10.4,6,0.00,CLR,,0.00,WeatherDisplay:10.37,2013-05-25 23:52:00,
2013-05-25 19:54:00,63.7,-4.9,30.22,North,350,6.2,8.1,6,0.00,CLR,,0.00,WeatherDisplay:10.37,2013-05-25 23:54:00,
2013-05-25 19:55:00,64.0,-4.7,30.22,WNW,302,4.9,10.4,6,0.00,CLR,,0.00,WeatherDisplay:10.37,2013-05-25 23:55:00,
2013-05-25 19:57:00,63.6,-5.0,30.22,West,264,4.6,9.2,6,0.00,CLR,,0.00,WeatherDisplay:10.37,2013-05-25 23:57:00,
2013-05-25 19:59:00,63.7,-4.9,30.22,WNW,288,5.5,11.5,6,0.00,CLR,,0.00,WeatherDisplay:10.37,2013-05-25 23:59:00,
2013-05-25 20:00:00,63.8,-4.8,30.22,West,277,2.1,8.1,6,0.00,CLR,,0.00,WeatherDisplay:10.37,2013-05-26 00:00:00,
2013-05-25 20:02:00,63.1,-5.4,30.22,NW,312,3.3,8.1,6,0.00,CLR,,0.00,WeatherDisplay:10.37,2013-05-26 00:02:00,
2013-05-25 20:03:00,63.5,-5.1,30.22,NNW,343,0.3,5.8,6,0.00,CLR,,0.00,WeatherDisplay:10.37,2013-05-26 00:03:00,
2013-05-25 20:04:00,63.5,-5.1,30.22,WNW,292,2.6,6.9,6,0.00,CLR,,0.00,WeatherDisplay:10.37,2013-05-26 00:04:00,
2013-05-25 20:05:00,63.3,-5.2,30.22,WNW,292,0.0,4.6,6,0.00,CLR,,0.00,WeatherDisplay:10.37,2013-05-26 00:05:00,
2013-05-25 20:07:00,63.4,-5.1,30.22,NW,320,5.0,5.1,6,0.00,CLR,,0.00,WeatherDisplay:10.37,2013-05-26 00:07:00,
2013-05-25 20:08:00,63.2,-5.3,30.22,West,277,5.1,9.2,6,0.00,CLR,,0.00,WeatherDisplay:10.37,2013-05-26 00:08:00,
2013-05-25 20:09:00,63.2,-5.3,30.22,NW,305,1.5,5.8,6,0.00,CLR,,0.00,WeatherDisplay:10.37,2013-05-26 00:09:00,
2013-05-25 20:10:00,63.2,-5.3,30.22,NW,305,1.2,5.8,6,0.00,CLR,,0.00,WeatherDisplay:10.37,2013-05-26 00:10:00,
2013-05-25 20:13:00,63.2,-2.0,30.22,NW,305,0.0,0.0,7,0.00,CLR,,0.00,WeatherDisplay:10.37,2013-05-26 00:13:00,
2013-05-25 20:14:00,62.5,-5.8,30.22,NW,312,2.1,6.0,6,0.00,CLR,,0.00,WeatherDisplay:10.37,2013-05-26 00:14:00,
2013-05-25 20:16:00,62.7,-2.4,30.22,WNW,292,1.5,8.1,7,0.00,CLR,,0.00,WeatherDisplay:10.37,2013-05-26 00:16:00,
2013-05-25 20:18:00,62.5,-2.6,30.22,WNW,299,3.4,7.5,7,0.00,CLR,,0.00,WeatherDisplay:10.37,2013-05-26 00:18:00,
2013-05-25 20:20:00,61.8,-3.1,30.22,NW,322,6.3,11.5,7,0.00,CLR,,0.00,WeatherDisplay:10.37,2013-05-26 00:20:00,
2013-05-25 20:21:00,61.5,-3.3,30.22,NNW,339,1.4,5.8,7,0.00,CLR,,0.00,WeatherDisplay:10.37,2013-05-26 00:21:00,
2013-05-25 20:23:00,61.6,-3.2,30.22,NNW,339,0.0,0.0,7,0.00,CLR,,0.00,WeatherDisplay:10.37,2013-05-26 00:23:00,
2013-05-25 20:25:00,61.3,-3.5,30.22,NW,305,2.5,8.1,7,0.00,CLR,,0.00,WeatherDisplay:10.37,2013-05-26 00:25:00,
2013-05-25 20:26:00,61.1,-3.6,30.22,NNW,339,1.7,4.8,7,0.00,CLR,,0.00,WeatherDisplay:10.37,2013-05-26 00:26:00,
2013-05-25 20:28:00,61.1,-3.6,30.22,WNW,296,3.1,7.9,7,0.00,CLR,,0.00,WeatherDisplay:10.37,2013-05-26 00:28:00,
2013-05-25 20:29:00,61.2,-3.5,30.22,NNW,328,7.8,10.4,7,0.00,CLR,,0.00,WeatherDisplay:10.37,2013-05-26 00:29:00,
2013-05-25 20:30:00,61.0,-0.9,30.22,NNW,337,0.0,8.1,8,0.00,CLR,,0.00,WeatherDisplay:10.37,2013-05-26 00:30:00,
2013-05-25 20:31:00,60.6,-1.2,30.22,NW,305,2.8,8.1,8,0.00,CLR,,0.00,WeatherDisplay:10.37,2013-05-26 00:31:00,
2013-05-25 20:33:00,60.7,1.4,30.22,NW,319,4.0,6.9,9,0.00,CLR,,0.00,WeatherDisplay:10.37,2013-05-26 00:33:00,
2013-05-25 20:34:00,60.7,1.4,30.22,NW,320,1.6,9.2,9,0.00,CLR,,0.00,WeatherDisplay:10.37,2013-05-26 00:34:00,
2013-05-25 20:35:00,60.2,-1.5,30.22,WSW,247,6.9,11.5,8,0.00,CLR,,0.00,WeatherDisplay:10.37,2013-05-26 00:35:00,
2013-05-25 20:36:00,60.3,1.1,30.22,NNW,337,4.7,10.4,9,0.00,CLR,,0.00,WeatherDisplay:10.37,2013-05-26 00:36:00,
2013-05-25 20:39:00,60.6,-1.2,30.22,NW,304,6.1,9.2,8,0.00,CLR,,0.00,WeatherDisplay:10.37,2013-05-26 00:39:00,
2013-05-25 20:40:00,60.4,1.2,30.22,WNW,302,4.1,8.1,9,0.00,CLR,,0.00,WeatherDisplay:10.37,2013-05-26 00:40:00,
2013-05-25 20:41:00,60.5,1.3,30.22,NW,305,2.9,7.8,9,0.00,CLR,,0.00,WeatherDisplay:10.37,2013-05-26 00:41:00,
2013-05-25 20:44:00,60.1,3.2,30.22,West,264,0.2,6.9,10,0.00,CLR,,0.00,WeatherDisplay:10.37,2013-05-26 00:44:00,
2013-05-25 20:46:00,59.3,0.4,30.22,WNW,288,1.2,4.6,9,0.00,CLR,,0.00,WeatherDisplay:10.37,2013-05-26 00:46:00,
2013-05-25 20:49:00,60.4,3.5,30.23,WNW,294,0.4,4.6,10,0.00,CLR,,0.00,WeatherDisplay:10.37,2013-05-26 00:49:00,
2013-05-25 20:51:00,59.6,2.9,30.23,WNW,299,4.8,6.0,10,0.00,CLR,,0.00,WeatherDisplay:10.37,2013-05-26 00:51:00,
2013-05-25 20:54:00,59.4,2.7,30.23,NW,319,3.6,8.1,10,0.00,CLR,,0.00,WeatherDisplay:10.37,2013-05-26 00:54:00,
2013-05-25 20:55:00,59.8,5.1,30.23,NW,326,2.3,8.1,11,0.00,CLR,,0.00,WeatherDisplay:10.37,2013-05-26 00:55:00,
2013-05-25 20:56:00,59.4,2.7,30.23,West,263,0.8,4.6,10,0.00,CLR,,0.00,WeatherDisplay:10.37,2013-05-26 00:56:00,
2013-05-25 20:57:00,60.1,5.3,30.23,West,263,0.0,4.6,11,0.00,CLR,,0.00,WeatherDisplay:10.37,2013-05-26 00:57:00,
2013-05-25 20:59:00,59.8,5.1,30.23,West,263,0.0,0.0,11,0.00,CLR,,0.00,WeatherDisplay:10.37,2013-05-26 00:59:00,
2013-05-25 21:00:00,59.3,4.7,30.23,West,263,0.0,0.0,11,0.00,CLR,,0.00,WeatherDisplay:10.37,2013-05-26 01:00:00,
2013-05-25 21:01:00,59.3,4.7,30.22,West,263,0.0,0.0,11,0.00,CLR,,0.00,WeatherDisplay:10.37,2013-05-26 01:01:00,
2013-05-25 21:02:00,59.5,6.8,30.22,West,263,0.0,0.0,12,0.00,CLR,,0.00,WeatherDisplay:10.37,2013-05-26 01:02:00,
2013-05-25 21:05:00,58.7,4.2,30.23,NNW,333,2.0,4.6,11,0.00,CLR,,0.00,WeatherDisplay:10.37,2013-05-26 01:05:00,
2013-05-25 21:06:00,58.7,6.1,30.23,NW,315,0.0,5.8,12,0.00,CLR,,0.00,WeatherDisplay:10.37,2013-05-26 01:06:00,
2013-05-25 21:07:00,58.9,6.3,30.23,NW,315,0.0,0.0,12,0.00,CLR,,0.00,WeatherDisplay:10.37,2013-05-26 01:07:00,
2013-05-25 21:10:00,58.4,5.9,30.23,NW,315,0.0,0.0,12,0.00,CLR,,0.00,WeatherDisplay:10.37,2013-05-26 01:10:00,
2013-05-25 21:12:00,59.2,6.5,30.23,West,267,1.1,0.0,12,0.00,CLR,,0.00,WeatherDisplay:10.37,2013-05-26 01:12:00,
2013-05-25 21:15:00,57.7,5.3,30.23,West,267,0.0,0.0,12,0.00,CLR,,0.00,WeatherDisplay:10.37,2013-05-26 01:15:00,
2013-05-25 21:16:00,58.9,6.3,30.23,West,267,0.0,0.0,12,0.00,CLR,,0.00,WeatherDisplay:10.37,2013-05-26 01:16:00,
2013-05-25 21:17:00,57.9,3.6,30.23,WNW,302,1.9,8.2,11,0.00,CLR,,0.00,WeatherDisplay:10.37,2013-05-26 01:17:00,
2013-05-25 21:20:00,59.0,6.4,30.24,West,274,0.0,0.0,12,0.00,CLR,,0.00,WeatherDisplay:10.37,2013-05-26 01:20:00,
2013-05-25 21:21:00,59.0,4.5,30.24,West,274,0.0,0.0,11,0.00,CLR,,0.00,WeatherDisplay:10.37,2013-05-26 01:21:00,
2013-05-25 21:22:00,59.0,4.5,30.24,West,274,0.0,0.0,11,0.00,CLR,,0.00,WeatherDisplay:10.37,2013-05-26 01:22:00,
2013-05-25 21:26:00,58.6,4.1,30.24,West,274,0.0,0.0,11,0.00,CLR,,0.00,WeatherDisplay:10.37,2013-05-26 01:26:00,
2013-05-25 21:27:00,58.1,5.7,30.24,West,274,0.0,0.0,12,0.00,CLR,,0.00,WeatherDisplay:10.37,2013-05-26 01:27:00,
2013-05-25 21:28:00,58.8,11.2,30.24,West,274,0.0,0.0,15,0.00,CLR,,0.00,WeatherDisplay:10.37,2013-05-26 01:28:00,
2013-05-25 21:31:00,59.4,6.7,30.25,SW,216,0.0,0.0,12,0.00,CLR,,0.00,WeatherDisplay:10.37,2013-05-26 01:31:00,
2013-05-25 21:32:00,58.3,5.8,30.25,SW,216,0.0,0.0,12,0.00,CLR,,0.00,WeatherDisplay:10.37,2013-05-26 01:32:00,
2013-05-25 21:33:00,59.0,8.1,30.25,SW,216,0.0,0.0,13,0.00,CLR,,0.00,WeatherDisplay:10.37,2013-05-26 01:33:00,
2013-05-25 21:36:00,58.6,6.1,30.25,SW,216,0.0,0.0,12,0.00,CLR,,0.00,WeatherDisplay:10.37,2013-05-26 01:36:00,
2013-05-25 21:37:00,57.2,5.0,30.25,SW,216,0.0,0.0,12,0.00,CLR,,0.00,WeatherDisplay:10.37,2013-05-26 01:37:00,
2013-05-25 21:38:00,57.6,3.4,30.25,SW,216,0.0,0.0,11,0.00,CLR,,0.00,WeatherDisplay:10.37,2013-05-26 01:38:00,
2013-05-25 21:41:00,57.4,5.1,30.25,SW,216,0.0,0.0,12,0.00,CLR,,0.00,WeatherDisplay:10.37,2013-05-26 01:41:00,
2013-05-25 21:42:00,56.1,5.8,30.25,SW,216,0.0,0.0,13,0.00,CLR,,0.00,WeatherDisplay:10.37,2013-05-26 01:42:00,
2013-05-25 21:43:00,56.0,5.8,30.25,SW,216,0.0,0.0,13,0.00,CLR,,0.00,WeatherDisplay:10.37,2013-05-26 01:43:00,
2013-05-25 21:47:00,55.3,9.8,30.25,SW,216,0.0,0.0,16,0.00,CLR,,0.00,WeatherDisplay:10.37,2013-05-26 01:47:00,
2013-05-25 21:48:00,54.7,7.9,30.25,SW,216,0.0,0.0,15,0.00,CLR,,0.00,WeatherDisplay:10.37,2013-05-26 01:48:00,
2013-05-25 21:52:00,53.4,8.3,30.25,SW,216,0.0,0.0,16,0.00,CLR,,0.00,WeatherDisplay:10.37,2013-05-26 01:52:00,
2013-05-25 21:53:00,53.8,8.6,30.25,NW,323,0.4,5.8,16,0.00,CLR,,0.00,WeatherDisplay:10.37,2013-05-26 01:53:00,
2013-05-25 21:54:00,54.2,8.9,30.25,NW,325,3.5,5.8,16,0.00,CLR,,0.00,WeatherDisplay:10.37,2013-05-26 01:54:00,
2013-05-25 21:57:00,52.9,9.2,30.25,North,4,5.1,8.1,17,0.00,CLR,,0.00,WeatherDisplay:10.37,2013-05-26 01:57:00,
2013-05-25 21:58:00,54.7,9.3,30.25,NW,309,7.3,9.2,16,0.00,CLR,,0.00,WeatherDisplay:10.37,2013-05-26 01:58:00,
2013-05-25 21:59:00,53.0,9.3,30.25,NNW,336,4.5,9.2,17,0.00,CLR,,0.00,WeatherDisplay:10.37,2013-05-26 01:59:00,
2013-05-25 22:02:00,53.0,7.9,30.25,NNW,330,4.6,8.1,16,0.00,CLR,,0.00,WeatherDisplay:10.37,2013-05-26 02:02:00,
2013-05-25 22:03:00,53.7,9.8,30.25,WNW,294,2.9,8.1,17,0.00,CLR,,0.00,WeatherDisplay:10.37,2013-05-26 02:03:00,
2013-05-25 22:04:00,53.9,8.7,30.25,NNW,347,2.2,5.8,16,0.00,CLR,,0.00,WeatherDisplay:10.37,2013-05-26 02:04:00,
2013-05-25 22:07:00,54.3,7.5,30.25,NNW,343,6.7,8.1,15,0.00,CLR,,0.00,WeatherDisplay:10.37,2013-05-26 02:07:00,
2013-05-25 22:08:00,54.5,7.7,30.25,West,280,4.7,9.2,15,0.00,CLR,,0.00,WeatherDisplay:10.37,2013-05-26 02:08:00,
2013-05-25 22:09:00,54.2,7.5,30.25,NW,318,5.3,10.4,15,0.00,CLR,,0.00,WeatherDisplay:10.37,2013-05-26 02:09:00,
2013-05-25 22:12:00,54.4,7.6,30.25,NW,311,5.1,8.6,15,0.00,CLR,,0.00,WeatherDisplay:10.37,2013-05-26 02:12:00,
2013-05-25 22:13:00,54.4,7.6,30.25,NW,316,2.0,9.2,15,0.00,CLR,,0.00,WeatherDisplay:10.37,2013-05-26 02:13:00,
2013-05-25 22:14:00,53.4,8.3,30.25,NW,316,0.7,4.6,16,0.00,CLR,,0.00,WeatherDisplay:10.37,2013-05-26 02:14:00,
2013-05-25 22:15:00,54.6,7.8,30.25,WNW,284,3.8,8.1,15,0.00,CLR,,0.00,WeatherDisplay:10.37,2013-05-26 02:15:00,
2013-05-25 22:17:00,54.9,8.0,30.25,NW,319,5.1,10.4,15,0.00,CLR,,0.00,WeatherDisplay:10.37,2013-05-26 02:17:00,
2013-05-25 22:19:00,54.3,7.5,30.25,NW,309,4.6,9.2,15,0.00,CLR,,0.00,WeatherDisplay:10.37,2013-05-26 02:19:00,
2013-05-25 22:20:00,54.4,7.6,30.25,WNW,289,7.6,12.7,15,0.00,CLR,,0.00,WeatherDisplay:10.37,2013-05-26 02:20:00,
2013-05-25 22:23:00,54.8,8.0,30.25,WNW,291,6.5,9.2,15,0.00,CLR,,0.00,WeatherDisplay:10.37,2013-05-26 02:23:00,
2013-05-25 22:24:00,53.9,7.2,30.25,WNW,294,4.2,8.1,15,0.00,CLR,,0.00,WeatherDisplay:10.37,2013-05-26 02:24:00,
2013-05-25 22:25:00,55.3,8.4,30.25,NNW,342,6.3,10.4,15,0.00,CLR,,0.00,WeatherDisplay:10.37,2013-05-26 02:25:00,
2013-05-25 22:28:00,54.9,9.5,30.25,WNW,294,2.0,10.4,16,0.00,CLR,,0.00,WeatherDisplay:10.37,2013-05-26 02:28:00,
2013-05-25 22:29:00,55.2,8.3,30.25,WNW,289,1.3,4.9,15,0.00,CLR,,0.00,WeatherDisplay:10.37,2013-05-26 02:29:00,
2013-05-25 22:30:00,54.4,7.6,30.25,NW,315,4.3,8.1,15,0.00,CLR,,0.00,WeatherDisplay:10.37,2013-05-26 02:30:00,
2013-05-25 22:34:00,54.7,7.9,30.26,West,281,6.0,9.2,15,0.00,CLR,,0.00,WeatherDisplay:10.37,2013-05-26 02:34:00,
2013-05-25 22:35:00,54.9,9.5,30.26,NNW,337,3.5,10.4,16,0.00,CLR,,0.00,WeatherDisplay:10.37,2013-05-26 02:35:00,
2013-05-25 22:39:00,53.9,8.7,30.26,WNW,291,0.3,3.5,16,0.00,CLR,,0.00,WeatherDisplay:10.37,2013-05-26 02:39:00,
2013-05-25 22:40:00,54.4,7.6,30.26,NW,306,2.4,6.4,15,0.00,CLR,,0.00,WeatherDisplay:10.37,2013-05-26 02:40:00,
2013-05-25 22:41:00,54.2,8.9,30.26,NW,313,3.1,6.9,16,0.00,CLR,,0.00,WeatherDisplay:10.37,2013-05-26 02:41:00,
2013-05-25 22:44:00,54.5,9.1,30.26,NW,305,8.1,13.8,16,0.00,CLR,,0.00,WeatherDisplay:10.37,2013-05-26 02:44:00,
2013-05-25 22:45:00,54.1,8.8,30.26,NW,326,7.2,12.7,16,0.00,CLR,,0.00,WeatherDisplay:10.37,2013-05-26 02:45:00,
2013-05-25 22:46:00,54.6,7.8,30.25,NW,315,8.5,12.7,15,0.00,CLR,,0.00,WeatherDisplay:10.37,2013-05-26 02:46:00,
2013-05-25 22:49:00,54.4,10.4,30.25,North,349,4.8,8.1,17,0.00,CLR,,0.00,WeatherDisplay:10.37,2013-05-26 02:49:00,
2013-05-25 22:50:00,53.4,9.6,30.25,NW,318,4.0,8.1,17,0.00,CLR,,0.00,WeatherDisplay:10.37,2013-05-26 02:50:00,
2013-05-25 22:51:00,53.1,9.4,30.25,NNW,343,5.0,9.9,17,0.00,CLR,,0.00,WeatherDisplay:10.37,2013-05-26 02:51:00,
2013-05-25 22:54:00,54.2,10.3,30.25,WNW,288,3.0,6.9,17,0.00,CLR,,0.00,WeatherDisplay:10.37,2013-05-26 02:54:00,
2013-05-25 22:55:00,53.3,9.5,30.25,NW,313,5.1,8.5,17,0.00,CLR,,0.00,WeatherDisplay:10.37,2013-05-26 02:55:00,
2013-05-25 22:56:00,54.2,10.3,30.25,NW,322,4.7,8.1,17,0.00,CLR,,0.00,WeatherDisplay:10.37,2013-05-26 02:56:00,
2013-05-25 22:59:00,53.3,8.2,30.25,WNW,282,6.2,8.1,16,0.00,CLR,,0.00,WeatherDisplay:10.37,2013-05-26 02:59:00,
2013-05-25 23:00:00,54.1,10.2,30.25,North,6,3.6,8.1,17,0.00,CLR,,0.00,WeatherDisplay:10.37,2013-05-26 03:00:00,
2013-05-25 23:01:00,52.8,9.1,30.25,NW,326,3.1,8.1,17,0.00,CLR,,0.00,WeatherDisplay:10.37,2013-05-26 03:01:00,
2013-05-25 23:04:00,54.7,10.7,30.26,NW,304,0.0,5.8,17,0.00,CLR,,0.00,WeatherDisplay:10.37,2013-05-26 03:04:00,
2013-05-25 23:06:00,53.7,9.8,30.26,NW,316,0.4,5.8,17,0.00,CLR,,0.00,WeatherDisplay:10.37,2013-05-26 03:06:00,
2013-05-25 23:10:00,53.2,9.4,30.26,WNW,291,2.5,5.8,17,0.00,CLR,,0.00,WeatherDisplay:10.37,2013-05-26 03:10:00,
2013-05-25 23:11:00,54.1,10.2,30.26,NNW,336,0.5,4.2,17,0.00,CLR,,0.00,WeatherDisplay:10.37,2013-05-26 03:11:00,
2013-05-25 23:15:00,52.6,10.2,30.26,WNW,289,0.6,4.6,18,0.00,CLR,,0.00,WeatherDisplay:10.37,2013-05-26 03:15:00,
2013-05-25 23:16:00,52.8,10.4,30.26,WNW,289,0.0,0.0,18,0.00,CLR,,0.00,WeatherDisplay:10.37,2013-05-26 03:16:00,
2013-05-25 23:20:00,52.2,11.1,30.26,NW,304,0.0,3.5,19,0.00,CLR,,0.00,WeatherDisplay:10.37,2013-05-26 03:20:00,
2013-05-25 23:21:00,53.3,12.0,30.26,NW,304,0.0,0.0,19,0.00,CLR,,0.00,WeatherDisplay:10.37,2013-05-26 03:21:00,
2013-05-25 23:22:00,52.7,11.5,30.26,NW,304,0.0,0.0,19,0.00,CLR,,0.00,WeatherDisplay:10.37,2013-05-26 03:22:00,
2013-05-25 23:25:00,52.7,11.5,30.26,NW,304,0.0,0.0,19,0.00,CLR,,0.00,WeatherDisplay:10.37,2013-05-26 03:25:00,
2013-05-25 23:26:00,51.7,10.7,30.26,NW,304,0.0,0.0,19,0.00,CLR,,0.00,WeatherDisplay:10.37,2013-05-26 03:26:00,
2013-05-25 23:27:00,53.0,11.8,30.26,NW,304,0.0,0.0,19,0.00,CLR,,0.00,WeatherDisplay:10.37,2013-05-26 03:27:00,
2013-05-25 23:31:00,52.9,11.7,30.26,West,271,1.9,8.3,19,0.00,CLR,,0.00,WeatherDisplay:10.37,2013-05-26 03:31:00,
2013-05-25 23:32:00,51.5,10.5,30.26,NNW,333,6.9,11.5,19,0.00,CLR,,0.00,WeatherDisplay:10.37,2013-05-26 03:32:00,
2013-05-25 23:33:00,52.7,12.7,30.26,WNW,287,4.8,9.2,20,0.00,CLR,,0.00,WeatherDisplay:10.37,2013-05-26 03:33:00,
2013-05-25 23:36:00,52.1,12.2,30.26,NW,313,1.5,5.8,20,0.00,CLR,,0.00,WeatherDisplay:10.37,2013-05-26 03:36:00,
2013-05-25 23:37:00,52.1,12.2,30.26,NW,313,0.9,3.5,20,0.00,CLR,,0.00,WeatherDisplay:10.37,2013-05-26 03:37:00,
2013-05-25 23:41:00,51.9,12.0,30.26,West,272,0.0,0.0,20,0.00,CLR,,0.00,WeatherDisplay:10.37,2013-05-26 03:41:00,
2013-05-25 23:42:00,51.7,11.9,30.26,West,272,0.0,0.0,20,0.00,CLR,,0.00,WeatherDisplay:10.37,2013-05-26 03:42:00,
2013-05-25 23:43:00,51.9,13.1,30.26,West,272,0.0,0.0,21,0.00,CLR,,0.00,WeatherDisplay:10.37,2013-05-26 03:43:00,
2013-05-25 23:47:00,51.4,11.6,30.26,West,272,0.0,0.0,20,0.00,CLR,,0.00,WeatherDisplay:10.37,2013-05-26 03:47:00,
2013-05-25 23:48:00,52.8,16.0,30.26,West,272,0.0,0.0,23,0.00,CLR,,0.00,WeatherDisplay:10.37,2013-05-26 03:48:00,
2013-05-25 23:52:00,52.3,12.4,30.26,West,272,0.0,0.0,20,0.00,CLR,,0.00,WeatherDisplay:10.37,2013-05-26 03:52:00,
2013-05-25 23:53:00,53.5,14.5,30.26,WNW,287,0.4,4.6,21,0.00,CLR,,0.00,WeatherDisplay:10.37,2013-05-26 03:53:00,
2013-05-25 23:57:00,52.4,14.6,30.26,WNW,287,0.0,0.0,22,0.00,CLR,,0.00,WeatherDisplay:10.37,2013-05-26 03:57:00,
2013-05-25 23:58:00,52.8,14.9,30.26,WNW,287,0.0,0.0,22,0.00,CLR,,0.00,WeatherDisplay:10.37,2013-05-26 03:58:00,